DW0452 Weather Reports


Display with metric or nautical units.
time (UTC)temp
F
wind
direction
speed
MPH
gust
MPH
rain 1hr
in
rain 24hr
in
rain mn
in
humidity
%
barometer
mb
20180722122220 60 35 0.0 1.0 0.31 3.07 0.23 94 1009.7
20180722122119 60 35 0.0 1.0 0.31 3.07 0.23 94 1009.8
20180722122017 60 35 0.0 3.0 0.31 3.07 0.23 94 1009.7
20180722121916 60 33 0.0 3.0 0.31 3.07 0.23 94 1009.7
20180722121816 60 33 0.0 3.0 0.31 3.03 0.22 94 1009.7
20180722121716 60 33 0.0 3.0 0.31 3.03 0.22 94 1009.7
20180722121615 60 32 0.0 3.0 0.31 3.03 0.22 94 1009.8
20180722121515 60 33 0.0 3.0 0.31 3.03 0.22 94 1009.8
20180722121416 60 33 0.0 3.0 0.31 3.03 0.22 94 1009.9
20180722121319 60 33 0.0 3.0 0.31 3.03 0.22 94 1009.8
20180722121218 60 33 1.0 3.0 0.31 3.03 0.22 94 1009.8
20180722121118 60 16 0.0 2.0 0.28 2.99 0.21 95 1009.9
20180722121017 60 4 0.0 1.0 0.28 2.99 0.21 94 1009.9
20180722120916 60 4 0.0 1.0 0.31 2.99 0.21 94 1009.9
20180722120816 60 4 0.0 1.0 0.31 2.99 0.21 94 1009.9
20180722120716 60 4 0.0 1.0 0.31 2.99 0.21 94 1009.8
20180722120615 60 21 0.0 1.0 0.31 2.99 0.21 94 1009.9
20180722120514 60 21 0.0 1.0 0.28 2.95 0.20 94 1009.8
20180722120413 60 21 0.0 1.0 0.28 2.95 0.20 94 1009.9
20180722120312 60 21 0.0 1.0 0.31 2.95 0.20 94 1009.9
20180722120211 60 354 0.0 1.0 0.31 2.95 0.20 94 1009.9
20180722120110 60 354 0.0 1.0 0.31 2.95 0.20 94 1009.9
20180722120013 60 354 0.0 1.0 0.31 2.95 0.20 94 1010.0
20180722115912 60 349 0.0 1.0 0.31 2.95 0.20 94 1009.9
20180722115819 60 332 0.0 1.0 0.31 2.95 0.20 94 1009.9
20180722115713 60 332 0.0 1.0 0.31 2.95 0.20 94 1009.9
20180722115611 60 332 0.0 1.0 0.28 2.91 0.20 94 1009.9
20180722115508 60 332 0.0 1.0 0.28 2.91 0.20 94 1009.9
20180722115407 60 335 0.0 0.0 0.31 2.91 0.20 94 1010.0
20180722115306 60 335 0.0 1.0 0.31 2.91 0.20 94 1010.0
20180722115204 60 16 0.0 1.0 0.31 2.91 0.20 94 1010.0
20180722115103 60 16 0.0 1.0 0.31 2.91 0.20 94 1010.0
20180722115002 60 16 0.0 1.0 0.28 2.87 0.19 94 1010.0
20180722114901 59 16 0.0 1.0 0.31 2.87 0.19 94 1009.9
20180722114800 59 16 0.0 1.0 0.31 2.87 0.19 94 1010.0
20180722114703 59 16 0.0 1.0 0.31 2.87 0.19 94 1010.0
20180722114602 59 16 0.0 1.0 0.31 2.87 0.19 94 1010.0
20180722114501 59 16 0.0 1.0 0.31 2.87 0.19 94 1010.0
20180722114400 59 333 0.0 1.0 0.31 2.87 0.19 94 1010.0
20180722114259 59 334 0.0 1.0 0.31 2.87 0.19 94 1010.0
20180722114158 59 354 0.0 3.0 0.28 2.83 0.19 94 1010.0
20180722114057 59 354 0.0 3.0 0.28 2.83 0.18 94 1010.0
20180722113956 59 354 0.0 3.0 0.28 2.83 0.18 94 1010.0
20180722113855 59 350 0.0 3.0 0.28 2.83 0.18 94 1010.1
20180722113754 59 350 0.0 3.0 0.28 2.83 0.18 94 1010.0
20180722113653 59 350 0.0 3.0 0.28 2.83 0.18 94 1010.1
20180722113532 59 350 0.0 3.0 0.28 2.83 0.18 94 1010.1
20180722113435 59 354 0.0 3.0 0.24 2.80 0.17 94 1010.0
20180722113335 59 354 0.0 3.0 0.28 2.80 0.17 94 1010.1
20180722113235 59 33 0.0 2.0 0.28 2.80 0.17 94 1010.0
20180722113134 59 33 0.0 2.0 0.28 2.80 0.17 94 1010.1
20180722113034 59 33 0.0 2.0 0.28 2.80 0.17 94 1010.1
20180722112935 59 33 0.0 2.0 0.28 2.80 0.17 94 1010.1
20180722112838 59 33 0.0 2.0 0.28 2.80 0.17 94 1010.0
20180722112738 59 33 0.0 2.0 0.28 2.80 0.17 94 1010.1
20180722112637 59 33 0.0 2.0 0.28 2.80 0.17 94 1010.0
20180722112537 59 93 0.0 0.0 0.28 2.80 0.17 94 1010.2
20180722112437 59 93 0.0 0.0 0.24 2.76 0.17 94 1010.1
20180722112337 59 93 0.0 0.0 0.24 2.76 0.17 94 1010.1
20180722112237 59 93 0.0 0.0 0.24 2.76 0.17 94 1010.1
20180722112141 59 93 0.0 0.0 0.24 2.76 0.17 94 1010.1
20180722112041 59 93 0.0 0.0 0.24 2.76 0.17 94 1010.1
20180722111941 59 93 0.0 0.0 0.24 2.76 0.17 94 1010.2
20180722111840 59 93 0.0 0.0 0.24 2.76 0.17 94 1010.1
20180722111740 59 93 0.0 0.0 0.20 2.72 0.16 94 1010.1
20180722111639 59 93 0.0 0.0 0.20 2.72 0.16 94 1010.2
20180722111524 59 93 0.0 0.0 0.20 2.72 0.16 94 1010.1
20180722111424 59 93 0.0 0.0 0.20 2.72 0.16 94 1010.2
20180722111325 59 95 0.0 0.0 0.20 2.72 0.16 94 1010.3
20180722111225 59 95 0.0 0.0 0.20 2.72 0.16 94 1010.3
20180722111125 59 94 0.0 0.0 0.20 2.72 0.16 94 1010.2
20180722111025 59 94 0.0 0.0 0.24 2.72 0.16 94 1010.2
20180722110929 59 95 0.0 0.0 0.20 2.68 0.16 94 1010.3
20180722110830 59 94 0.0 0.0 0.20 2.68 0.15 93 1010.2
20180722110730 59 94 0.0 0.0 0.20 2.68 0.15 93 1010.3
20180722110630 59 95 0.0 0.0 0.20 2.68 0.15 93 1010.3
20180722110530 59 95 0.0 0.0 0.20 2.68 0.15 93 1010.2
20180722110430 59 95 0.0 0.0 0.20 2.68 0.15 93 1010.3
20180722110331 59 95 0.0 0.0 0.20 2.68 0.15 93 1010.3
20180722110235 59 95 0.0 0.0 0.16 2.64 0.14 93 1010.3
20180722110135 59 95 0.0 0.0 0.16 2.64 0.14 93 1010.3
20180722110035 59 95 0.0 0.0 0.16 2.64 0.14 93 1010.2
20180722105935 59 95 0.0 0.0 0.16 2.64 0.14 93 1010.3
20180722105836 59 95 0.0 0.0 0.16 2.64 0.14 93 1010.3
20180722105736 59 95 0.0 0.0 0.16 2.64 0.14 93 1010.3
20180722105640 59 95 0.0 0.0 0.16 2.64 0.14 93 1010.3
20180722105541 59 95 0.0 0.0 0.16 2.64 0.14 93 1010.4
20180722105441 59 95 0.0 0.0 0.16 2.64 0.14 93 1010.4
20180722105342 59 95 0.0 0.0 0.12 2.60 0.13 93 1010.3
20180722105242 59 95 0.0 0.0 0.12 2.60 0.13 93 1010.3
20180722105123 59 96 0.0 0.0 0.12 2.60 0.13 93 1010.4
20180722105027 59 96 0.0 0.0 0.12 2.60 0.13 93 1010.4
20180722104927 59 96 0.0 0.0 0.12 2.60 0.13 93 1010.4
20180722104828 59 96 0.0 0.0 0.08 2.56 0.13 93 1010.4
20180722104728 59 96 0.0 0.0 0.08 2.56 0.13 93 1010.4
20180722104627 59 96 0.0 0.0 0.08 2.56 0.13 93 1010.4
20180722104527 59 96 0.0 0.0 0.08 2.56 0.13 93 1010.4
20180722104427 59 96 0.0 0.0 0.08 2.56 0.13 93 1010.5
20180722104330 59 96 0.0 0.0 0.08 2.56 0.13 93 1010.4
20180722104229 59 96 0.0 0.0 0.08 2.56 0.13 93 1010.5
20180722104129 59 96 0.0 0.0 0.08 2.56 0.13 93 1010.5
20180722104029 59 96 0.0 0.0 0.08 2.56 0.13 93 1010.5
20180722103929 59 96 0.0 0.0 0.08 2.56 0.13 93 1010.6
20180722103830 59 96 0.0 0.0 0.08 2.56 0.13 93 1010.7
20180722103734 59 96 0.0 0.0 0.08 2.56 0.13 93 1010.7
20180722103634 59 96 0.0 0.0 0.08 2.56 0.13 93 1010.7
20180722103534 59 96 0.0 0.0 0.08 2.56 0.13 93 1010.7
20180722103434 59 96 0.0 0.0 0.08 2.56 0.13 93 1010.6
20180722103333 59 96 0.0 0.0 0.04 2.52 0.12 93 1010.6
20180722103232 59 96 0.0 0.0 0.04 2.52 0.12 93 1010.7
20180722103132 59 96 0.0 0.0 0.04 2.52 0.12 93 1010.6
20180722103037 59 96 0.0 0.0 0.08 2.52 0.12 93 1010.6
20180722102936 59 96 0.0 0.0 0.08 2.52 0.12 93 1010.6
20180722102836 59 96 0.0 0.0 0.08 2.52 0.12 93 1010.6
20180722102736 59 95 0.0 0.0 0.08 2.52 0.12 93 1010.5
20180722102637 59 96 0.0 0.0 0.08 2.52 0.12 93 1010.5
20180722102537 59 96 0.0 0.0 0.08 2.52 0.12 93 1010.6
20180722102442 59 96 0.0 0.0 0.08 2.52 0.12 93 1010.6
20180722102342 59 96 0.0 0.0 0.08 2.52 0.12 93 1010.5
20180722102242 59 96 0.0 0.0 0.12 2.52 0.12 93 1010.6
20180722102123 59 96 0.0 0.0 0.12 2.52 0.12 93 1010.6
20180722102023 59 96 0.0 0.0 0.12 2.52 0.12 93 1010.6
20180722101923 59 96 0.0 0.0 0.12 2.52 0.12 93 1010.6
20180722101826 59 96 0.0 0.0 0.12 2.52 0.12 93 1010.6
20180722101728 59 96 0.0 0.0 0.12 2.52 0.12 93 1010.6
20180722101627 59 96 0.0 0.0 0.12 2.52 0.12 93 1010.6
20180722101528 59 97 0.0 0.0 0.12 2.52 0.12 93 1010.7
20180722101427 59 96 0.0 0.0 0.12 2.52 0.12 93 1010.6
20180722101328 59 96 0.0 0.0 0.16 2.52 0.12 93 1010.6
20180722101229 59 96 0.0 0.0 0.16 2.52 0.12 93 1010.7
20180722101131 59 96 0.0 0.0 0.12 2.48 0.11 93 1010.7
20180722101031 59 96 0.0 0.0 0.12 2.48 0.11 93 1010.6
20180722100931 59 96 0.0 0.0 0.12 2.48 0.11 93 1010.7
20180722100831 59 96 0.0 0.0 0.16 2.48 0.11 93 1010.7
20180722100731 59 96 0.0 0.0 0.16 2.48 0.11 93 1010.7
20180722100631 59 96 0.0 2.0 0.16 2.48 0.11 93 1010.6
20180722100536 59 96 0.0 2.0 0.16 2.48 0.11 93 1010.7
20180722100437 59 96 0.0 3.0 0.16 2.48 0.11 93 1010.7
20180722100336 60 96 0.0 3.0 0.16 2.48 0.11 93 1010.7
20180722100236 59 96 0.0 3.0 0.16 2.48 0.11 93 1010.7
20180722100135 60 96 0.0 3.0 0.16 2.48 0.11 92 1010.7
20180722100035 60 96 0.0 3.0 0.16 2.48 0.11 92 1010.6
20180722095935 60 96 0.0 3.0 0.16 2.48 0.11 92 1010.7
20180722095839 60 96 0.0 3.0 0.16 2.48 0.11 93 1010.7
20180722095739 60 137 0.0 3.0 0.20 2.48 0.11 93 1010.7
20180722095640 60 137 0.0 3.0 0.20 2.48 0.11 92 1010.7
20180722095540 60 110 0.0 3.0 0.20 2.48 0.11 92 1010.7
20180722095440 60 110 0.0 3.0 0.20 2.48 0.11 92 1010.7
20180722095340 60 110 0.0 3.0 0.20 2.48 0.11 92 1010.7
20180722095224 60 110 0.0 3.0 0.20 2.48 0.11 92 1010.7
20180722095124 60 110 0.0 3.0 0.20 2.48 0.11 93 1010.7
20180722095024 60 148 0.0 1.0 0.24 2.48 0.11 93 1010.7
20180722094944 60 123 0.0 1.0 0.24 2.48 0.11 93 1010.7
20180722094841 60 123 0.0 1.0 0.24 2.48 0.11 93 1010.7
20180722094722 60 123 0.0 1.0 0.24 2.48 0.11 93 1010.7
20180722094626 60 123 0.0 0.0 0.24 2.48 0.11 93 1010.8
20180722094526 60 123 0.0 0.0 0.24 2.48 0.11 93 1010.7
20180722094426 60 124 0.0 0.0 0.24 2.48 0.11 93 1010.6
20180722094326 60 123 0.0 0.0 0.24 2.48 0.11 93 1010.7
20180722094226 60 123 0.0 0.0 0.24 2.48 0.11 93 1010.7
20180722094126 60 123 0.0 0.0 0.24 2.48 0.11 93 1010.8
20180722094027 60 123 0.0 0.0 0.24 2.48 0.11 93 1010.7
20180722093931 60 145 0.0 2.0 0.24 2.48 0.11 93 1010.7
20180722093832 60 145 0.0 2.0 0.28 2.48 0.11 93 1010.7
20180722093732 60 145 0.0 2.0 0.28 2.48 0.11 93 1010.7
20180722093633 60 145 0.0 2.0 0.28 2.48 0.11 93 1010.7
20180722093533 60 146 0.0 2.0 0.28 2.48 0.11 93 1010.7
20180722093433 60 145 0.0 2.0 0.28 2.48 0.11 93 1010.8
20180722093337 60 145 0.0 3.0 0.28 2.48 0.11 93 1010.8
20180722093238 60 145 0.0 3.0 0.28 2.48 0.11 93 1010.8
20180722093138 60 146 0.0 3.0 0.28 2.48 0.11 93 1010.9
20180722093039 60 131 0.0 3.0 0.24 2.44 0.10 93 1010.8
20180722092939 60 114 0.0 3.0 0.24 2.44 0.10 93 1010.8
20180722092839 60 100 0.0 3.0 0.24 2.44 0.10 93 1010.8
20180722092723 60 100 0.0 6.0 0.24 2.44 0.10 93 1010.8
20180722092624 60 113 0.0 6.0 0.24 2.44 0.10 93 1010.9
20180722092524 60 110 0.0 6.0 0.24 2.44 0.10 93 1010.9
20180722092424 60 110 0.0 6.0 0.24 2.44 0.10 93 1010.9
20180722092324 60 110 0.0 6.0 0.20 2.40 0.09 93 1010.9
20180722092225 60 111 0.0 6.0 0.20 2.40 0.09 93 1010.9
20180722092125 60 110 0.0 6.0 0.20 2.40 0.09 93 1010.9
20180722092029 60 110 1.0 6.0 0.20 2.40 0.09 93 1011.0
20180722091929 60 110 1.0 6.0 0.20 2.40 0.09 93 1010.9
20180722091830 60 121 1.0 3.0 0.20 2.40 0.09 93 1011.0
20180722091731 60 99 0.0 3.0 0.20 2.40 0.09 93 1011.0
20180722091632 60 70 0.0 2.0 0.20 2.40 0.09 93 1011.0
20180722091532 60 120 0.0 2.0 0.20 2.40 0.09 93 1011.1
20180722091437 60 120 0.0 2.0 0.16 2.36 0.09 93 1011.1
20180722091337 60 120 0.0 2.0 0.16 2.36 0.09 93 1011.0
20180722091237 60 120 0.0 2.0 0.16 2.36 0.09 93 1010.9
20180722091138 60 102 0.0 2.0 0.16 2.36 0.09 93 1011.0
20180722091038 60 113 0.0 2.0 0.16 2.36 0.09 93 1011.0
20180722090938 60 113 0.0 1.0 0.16 2.36 0.09 93 1011.0
20180722090823 60 128 0.0 1.0 0.12 2.32 0.08 93 1010.9
20180722090723 60 128 0.0 2.0 0.12 2.32 0.08 93 1011.0
20180722090623 60 128 0.0 2.0 0.12 2.32 0.08 93 1010.9
20180722090524 60 129 0.0 2.0 0.12 2.32 0.08 93 1011.0
20180722090424 60 128 0.0 2.0 0.12 2.32 0.08 93 1011.0
20180722090344 60 128 0.0 2.0 0.12 2.32 0.08 92 1011.1
20180722090242 60 129 0.0 2.0 0.12 2.32 0.08 92 1010.9
20180722090126 60 128 0.0 3.0 0.12 2.32 0.08 92 1011.1
20180722090026 60 133 0.0 3.0 0.12 2.32 0.08 92 1011.0
20180722085927 60 120 0.0 3.0 0.12 2.32 0.08 92 1011.1
20180722085827 60 120 0.0 3.0 0.12 2.32 0.08 92 1011.1
20180722085726 60 120 0.0 3.0 0.08 2.28 0.07 92 1011.1
20180722085626 60 120 0.0 3.0 0.08 2.28 0.07 92 1011.1
20180722085531 60 120 0.0 7.0 0.08 2.28 0.07 92 1011.2
20180722085431 60 120 0.0 7.0 0.08 2.28 0.07 92 1011.1
20180722085330 60 120 1.0 7.0 0.08 2.28 0.07 91 1011.1
20180722085231 60 87 1.0 7.0 0.12 2.28 0.07 91 1011.2
20180722085132 60 89 0.0 7.0 0.08 2.24 0.06 91 1011.1
20180722085032 60 76 0.0 11.0 0.08 2.24 0.06 91 1011.2
20180722084932 60 131 1.0 11.0 0.08 2.24 0.06 91 1011.2
20180722084836 60 129 1.0 11.0 0.08 2.24 0.06 91 1011.2
20180722084737 60 116 0.0 11.0 0.08 2.24 0.06 91 1011.2
20180722084637 60 113 0.0 11.0 0.08 2.24 0.06 91 1011.1
20180722084537 61 112 0.0 11.0 0.08 2.24 0.06 91 1011.2
20180722084438 61 126 1.0 11.0 0.08 2.24 0.06 91 1011.2
20180722084338 61 104 1.0 11.0 0.08 2.24 0.06 91 1011.2
20180722084222 61 122 0.0 12.0 0.08 2.24 0.06 91 1011.3
20180722084122 61 131 1.0 12.0 0.08 2.24 0.06 91 1011.3
20180722084022 61 45 1.0 12.0 0.08 2.24 0.06 92 1011.3
20180722083922 61 118 1.0 12.0 0.04 2.20 0.06 92 1011.3
20180722083823 61 131 0.0 12.0 0.04 2.20 0.06 92 1011.3
20180722083723 61 110 0.0 12.0 0.04 2.20 0.06 92 1011.3
20180722083628 61 110 1.0 12.0 0.04 2.20 0.06 92 1011.3
20180722083528 61 104 2.0 12.0 0.04 2.20 0.06 92 1011.4
20180722083428 61 91 2.0 12.0 0.04 2.20 0.06 92 1011.3
20180722083327 61 116 1.0 7.0 0.04 2.20 0.06 93 1011.3
20180722083226 61 121 1.0 7.0 0.04 2.20 0.06 93 1011.3
20180722083125 61 138 1.0 4.0 0.04 2.20 0.06 93 1011.3
20180722083026 61 122 0.0 3.0 0.04 2.20 0.06 93 1011.4
20180722082930 61 125 0.0 2.0 0.04 2.20 0.06 93 1011.4
20180722082831 61 125 0.0 2.0 0.04 2.20 0.06 93 1011.3
20180722082731 62 128 0.0 2.0 0.04 2.20 0.06 93 1011.3
20180722082632 62 128 0.0 2.0 0.04 2.20 0.06 93 1011.3
20180722082532 62 128 0.0 2.0 0.04 2.20 0.06 93 1011.3
20180722082432 62 128 0.0 2.0 0.04 2.20 0.06 93 1011.3
20180722082337 62 108 0.0 2.0 0.08 2.20 0.06 93 1011.3
20180722082238 62 108 1.0 2.0 0.08 2.20 0.06 93 1011.3
20180722082138 62 99 0.0 2.0 0.08 2.20 0.06 93 1011.2
20180722082038 62 99 0.0 1.0 0.08 2.20 0.06 93 1011.3
20180722081938 62 99 0.0 1.0 0.08 2.20 0.06 93 1011.2
20180722081840 62 100 0.0 1.0 0.08 2.20 0.06 93 1011.2
20180722081723 62 104 0.0 1.0 0.08 2.20 0.06 93 1011.3
20180722081623 62 104 0.0 1.0 0.08 2.20 0.06 93 1011.2
20180722081523 62 117 0.0 1.0 0.08 2.20 0.06 93 1011.2
20180722081424 62 118 0.0 1.0 0.08 2.20 0.06 93 1011.3
20180722081324 62 118 0.0 1.0 0.08 2.20 0.06 93 1011.2
20180722081224 62 128 0.0 1.0 0.08 2.20 0.06 93 1011.3
20180722081124 62 101 0.0 1.0 0.08 2.20 0.06 93 1011.2
20180722081029 62 94 0.0 1.0 0.08 2.20 0.06 93 1011.3
20180722080929 62 95 0.0 1.0 0.08 2.20 0.06 93 1011.3
20180722080829 62 93 0.0 1.0 0.08 2.20 0.06 93 1011.4
20180722080729 62 93 0.0 1.0 0.08 2.20 0.06 93 1011.3
20180722080629 62 93 0.0 1.0 0.08 2.20 0.06 93 1011.4
20180722080529 62 125 0.0 1.0 0.08 2.20 0.06 93 1011.3
20180722080434 62 125 0.0 1.0 0.08 2.20 0.06 93 1011.2
20180722080334 62 125 0.0 1.0 0.08 2.20 0.06 93 1011.4
20180722080235 62 125 0.0 1.0 0.08 2.20 0.06 93 1011.4
20180722080135 62 129 0.0 1.0 0.08 2.20 0.06 93 1011.4
20180722080038 62 129 0.0 1.0 0.08 2.20 0.06 93 1011.4
20180722075936 62 129 0.0 1.0 0.12 2.20 0.06 93 1011.4
20180722075836 62 129 0.0 1.0 0.12 2.20 0.06 93 1011.4
20180722075741 62 129 0.0 3.0 0.12 2.20 0.06 93 1011.3
20180722075641 62 134 0.0 3.0 0.12 2.20 0.06 93 1011.4
20180722075541 62 134 0.0 3.0 0.12 2.20 0.06 93 1011.4
20180722075441 62 134 0.0 3.0 0.12 2.20 0.06 93 1011.4
20180722075322 62 102 0.0 3.0 0.12 2.20 0.06 92 1011.4
20180722075222 62 115 0.0 3.0 0.08 2.17 0.05 93 1011.3
20180722075126 62 114 0.0 3.0 0.08 2.17 0.05 93 1011.3
20180722075026 62 114 0.0 3.0 0.08 2.17 0.05 93 1011.4
20180722074927 62 114 0.0 3.0 0.08 2.17 0.05 93 1011.3
20180722074836 62 141 0.0 1.0 0.08 2.17 0.05 93 1011.3
20180722074727 62 124 0.0 0.0 0.08 2.17 0.05 93 1011.3
20180722074627 62 124 0.0 0.0 0.12 2.17 0.05 93 1011.3
20180722074532 62 123 0.0 0.0 0.12 2.17 0.05 93 1011.2
20180722074432 62 124 0.0 0.0 0.12 2.17 0.05 93 1011.3
20180722074333 62 124 0.0 0.0 0.12 2.17 0.05 93 1011.3
20180722074233 62 123 0.0 0.0 0.12 2.17 0.05 93 1011.4
20180722074133 62 123 0.0 0.0 0.12 2.17 0.05 92 1011.3
20180722074033 62 123 0.0 0.0 0.12 2.17 0.05 92 1011.3
20180722073933 62 124 0.0 0.0 0.12 2.17 0.05 92 1011.3
20180722073838 62 124 0.0 0.0 0.12 2.17 0.05 92 1011.1
20180722073738 62 124 0.0 1.0 0.16 2.17 0.05 92 1011.1
20180722073638 62 124 0.0 1.0 0.16 2.17 0.05 92 1011.2
20180722073539 62 124 0.0 1.0 0.16 2.17 0.05 92 1011.2
20180722073439 62 133 0.0 1.0 0.16 2.17 0.05 92 1011.1
20180722073339 62 133 0.0 1.0 0.16 2.17 0.05 92 1011.1
20180722073223 62 133 0.0 1.0 0.16 2.17 0.05 92 1011.1
20180722073122 62 143 0.0 1.0 0.16 2.17 0.05 92 1011.2
20180722073023 62 151 0.0 1.0 0.16 2.17 0.05 92 1011.2
20180722072922 62 109 0.0 0.0 0.16 2.17 0.05 92 1011.2
20180722072823 62 109 0.0 0.0 0.16 2.17 0.05 92 1011.3
20180722072723 62 109 0.0 0.0 0.16 2.17 0.05 92 1011.2
20180722072626 62 109 0.0 0.0 0.16 2.17 0.05 92 1011.3
20180722072528 62 109 0.0 0.0 0.20 2.17 0.05 92 1011.3
20180722072428 62 109 0.0 0.0 0.16 2.13 0.04 92 1011.3
20180722072329 62 109 0.0 0.0 0.16 2.13 0.04 92 1011.3
20180722072228 62 109 0.0 1.0 0.16 2.13 0.04 92 1011.3
20180722072129 62 108 0.0 1.0 0.16 2.13 0.04 92 1011.3
20180722072029 62 108 0.0 1.0 0.16 2.13 0.04 92 1011.3
20180722071933 62 109 0.0 1.0 0.16 2.13 0.04 92 1011.3
20180722071833 62 109 0.0 1.0 0.16 2.13 0.04 92 1011.3
20180722071734 62 109 0.0 1.0 0.20 2.13 0.04 92 1011.3
20180722071635 62 109 0.0 1.0 0.20 2.13 0.04 92 1011.4
20180722071535 62 109 0.0 1.0 0.20 2.13 0.04 92 1011.3
20180722071436 62 109 0.0 1.0 0.20 2.13 0.04 92 1011.5
20180722071339 62 117 0.0 0.0 0.20 2.13 0.04 92 1011.5
20180722071240 62 116 0.0 0.0 0.20 2.13 0.04 92 1011.5
20180722071141 62 117 0.0 0.0 0.20 2.13 0.04 92 1011.5
20180722071041 62 117 0.0 0.0 0.20 2.13 0.04 92 1011.5
20180722070941 62 116 0.0 2.0 0.20 2.13 0.04 92 1011.5
20180722070822 63 116 0.0 2.0 0.20 2.13 0.04 92 1011.4
20180722070726 63 113 0.0 2.0 0.20 2.13 0.04 92 1011.5
20180722070626 63 113 0.0 2.0 0.20 2.13 0.04 92 1011.5
20180722070527 63 112 0.0 2.0 0.20 2.13 0.04 92 1011.6
20180722070427 63 113 0.0 2.0 0.20 2.13 0.04 91 1011.6
20180722070326 63 113 0.0 2.0 0.20 2.13 0.04 91 1011.6
20180722070227 63 112 0.0 2.0 0.20 2.13 0.04 91 1011.5
20180722070126 63 112 0.0 1.0 0.20 2.13 0.04 91 1011.6
20180722070031 63 112 0.0 0.0 0.20 2.13 0.04 91 1011.6
20180722065931 63 112 0.0 0.0 0.16 2.09 0.03 91 1011.6
20180722065831 63 99 0.0 3.0 0.16 2.09 0.03 91 1011.6
20180722065731 63 95 0.0 3.0 0.16 2.09 0.03 91 1011.7
20180722065632 63 95 0.0 3.0 0.16 2.09 0.03 91 1011.6
20180722065532 63 95 0.0 3.0 0.16 2.09 0.03 91 1011.6
20180722065436 63 95 0.0 3.0 0.16 2.09 0.03 91 1011.7
20180722065336 63 95 0.0 3.0 0.16 2.09 0.03 91 1011.7
20180722065237 63 95 0.0 3.0 0.16 2.09 0.03 91 1011.7
20180722065137 63 95 0.0 3.0 0.16 2.09 0.03 91 1011.7
20180722065037 63 102 0.0 3.0 0.16 2.09 0.03 91 1011.6
20180722064938 63 79 0.0 1.0 0.16 2.09 0.03 91 1011.7
20180722064822 63 79 0.0 1.0 0.16 2.09 0.03 91 1011.7
20180722064722 63 123 0.0 0.0 0.12 2.05 0.02 91 1011.7
20180722064641 63 124 0.0 0.0 0.12 2.05 0.02 91 1011.7
20180722064540 63 125 0.0 3.0 0.12 2.05 0.02 91 1011.7
20180722064440 63 125 0.0 3.0 0.12 2.05 0.02 91 1011.8
20180722064339 63 125 0.0 3.0 0.12 2.05 0.02 91 1011.8
20180722064239 63 125 0.0 3.0 0.12 2.05 0.02 91 1011.8
20180722064123 63 139 0.0 4.0 0.12 2.05 0.02 91 1011.8
20180722064023 63 137 0.0 4.0 0.12 2.05 0.02 90 1011.8
20180722063922 63 139 0.0 6.0 0.12 2.05 0.02 91 1011.8
20180722063822 64 139 1.0 6.0 0.08 2.01 0.02 90 1011.8
20180722063741 64 139 1.0 7.0 0.08 2.01 0.02 90 1011.8
20180722063640 64 114 0.0 7.0 0.08 2.01 0.02 90 1011.8
20180722063525 64 113 1.0 7.0 0.08 2.01 0.02 90 1011.9
20180722063424 64 116 1.0 7.0 0.08 2.01 0.02 90 1011.8
20180722063323 64 149 1.0 7.0 0.08 2.01 0.02 90 1011.9
20180722063223 64 127 1.0 7.0 0.08 2.01 0.02 90 1011.9
20180722063123 64 121 1.0 7.0 0.08 2.01 0.02 90 1011.9
20180722063023 64 157 1.0 7.0 0.08 2.01 0.02 90 1011.8
20180722062923 64 117 1.0 7.0 0.08 2.01 0.02 90 1011.8
20180722062826 64 139 1.0 4.0 0.08 2.01 0.02 90 1011.8
20180722062726 64 141 1.0 4.0 0.08 2.01 0.02 90 1011.8
20180722062625 64 158 0.0 3.0 0.04 1.97 0.01 90 1011.8
20180722062524 64 137 0.0 4.0 0.04 1.97 0.01 90 1011.8
20180722062424 64 137 1.0 4.0 0.04 1.97 0.01 89 1011.9
20180722062324 64 139 1.0 4.0 0.04 1.97 0.01 89 1011.8
20180722062228 64 134 0.0 4.0 0.04 1.97 0.01 89 1011.9
20180722062128 64 144 0.0 4.0 0.04 1.97 0.01 89 1011.9
20180722062028 65 161 1.0 6.0 0.04 1.97 0.01 89 1011.9
20180722061928 65 164 1.0 9.0 0.04 1.97 0.01 89 1011.9
20180722061828 65 128 1.0 9.0 0.00 1.93 0.00 88 1011.8
20180722061728 65 128 1.0 9.0 0.00 1.93 0.00 88 1011.9
20180722061628 65 137 1.0 9.0 0.00 1.93 0.00 88 1011.8
20180722061532 65 125 1.0 9.0 0.00 1.93 0.00 88 1011.8
20180722061432 65 147 0.0 9.0 0.00 1.93 0.00 88 1011.8
20180722061333 65 134 1.0 9.0 0.00 1.93 0.00 88 1011.9
20180722061233 65 134 2.0 9.0 0.00 1.93 0.00 88 1011.9
20180722061132 65 152 1.0 9.0 0.00 1.93 0.00 88 1011.9
20180722061032 65 123 0.0 4.0 0.00 1.93 0.00 88 1011.9
20180722060936 65 149 0.0 4.0 0.00 1.93 0.00 88 1011.9
20180722060836 65 119 0.0 4.0 0.00 1.93 0.00 88 1011.8
20180722060736 65 119 0.0 4.0 0.00 1.93 0.00 88 1011.9
20180722060636 65 118 0.0 8.0 0.00 1.93 0.00 88 1012.0
20180722060536 65 136 1.0 8.0 0.00 1.93 0.00 87 1011.9
20180722060437 65 136 1.0 8.0 0.00 1.93 0.00 87 1011.9
20180722060337 65 121 1.0 8.0 0.00 1.93 0.00 87 1012.0
20180722060241 65 128 1.0 8.0 0.00 1.93 0.00 87 1012.0
20180722060141 65 137 1.0 8.0 0.00 1.93 0.00 87 1012.0
20180722060041 65 129 1.0 8.0 0.00 1.93 0.00 87 1012.0
20180722055922 66 153 3.0 8.0 0.00 1.93 0.00 87 1012.0
20180722055822 66 131 3.0 8.0 0.00 1.93 0.00 87 1012.0
20180722055722 66 120 3.0 7.0 0.00 1.93 0.00 87 1012.0
20180722055626 66 135 2.0 7.0 0.00 1.93 0.00 87 1012.0
20180722055527 66 134 1.0 7.0 0.00 1.93 0.00 87 1012.0
20180722055427 66 160 1.0 7.0 0.00 1.93 0.00 87 1012.0
20180722055328 66 138 1.0 7.0 0.00 1.93 0.00 87 1012.1
20180722055228 66 137 2.0 7.0 0.00 1.93 0.00 87 1012.1
20180722055129 66 117 1.0 7.0 0.00 1.93 0.00 87 1012.1
20180722055033 66 122 1.0 7.0 0.00 1.93 0.00 87 1012.0
20180722054934 66 147 2.0 7.0 0.00 1.93 0.00 87 1012.0
20180722054834 66 145 2.0 7.0 0.00 1.93 0.00 87 1012.1
20180722054735 66 124 2.0 5.0 0.00 1.93 0.00 87 1012.0
20180722054634 66 127 1.0 4.0 0.00 1.93 0.00 88 1012.2
20180722054534 66 120 0.0 4.0 0.00 1.93 0.00 88 1012.0
20180722054435 66 122 0.0 4.0 0.00 1.93 0.00 87 1012.1
20180722054340 66 122 0.0 4.0 0.00 1.93 0.00 88 1012.1
20180722054239 66 116 0.0 4.0 0.00 1.93 0.00 88 1012.1
20180722054140 66 110 0.0 4.0 0.00 1.93 0.00 88 1012.2
20180722054041 66 110 1.0 4.0 0.00 1.93 0.00 88 1012.1
20180722053940 66 110 1.0 4.0 0.00 1.93 0.00 88 1012.1
20180722053840 66 162 1.0 4.0 0.00 1.93 0.00 88 1012.2
20180722053725 66 156 1.0 4.0 0.00 1.93 0.00 88 1012.2
20180722053625 66 135 1.0 4.0 0.00 1.93 0.00 88 1012.2
20180722053526 66 130 1.0 4.0 0.00 1.93 0.00 88 1012.1
20180722053427 66 129 1.0 4.0 0.00 1.93 0.00 87 1012.1
20180722053326 66 148 0.0 4.0 0.00 1.93 0.00 88 1012.1
20180722053226 66 137 0.0 4.0 0.00 1.93 0.00 88 1012.1
20180722053130 66 137 0.0 4.0 0.00 1.93 0.00 88 1012.2
20180722053031 66 140 1.0 4.0 0.00 1.93 0.00 88 1012.2
20180722052931 66 139 1.0 4.0 0.00 1.93 0.00 88 1012.1
20180722052832 66 126 0.0 4.0 0.00 1.93 0.00 88 1012.2
20180722052732 66 104 0.0 4.0 0.00 1.93 0.00 88 1012.2
20180722052632 66 127 0.0 4.0 0.00 1.93 0.00 88 1012.2
20180722052533 66 125 0.0 4.0 0.00 1.93 0.00 88 1012.1
20180722052436 66 125 0.0 4.0 0.00 1.93 0.00 87 1012.2
20180722052336 66 125 0.0 4.0 0.00 1.93 0.00 87 1012.2
20180722052236 66 125 0.0 4.0 0.00 1.93 0.00 87 1012.2
20180722052136 66 125 0.0 4.0 0.00 1.93 0.00 87 1012.3
20180722052036 66 116 0.0 3.0 0.00 1.93 0.00 87 1012.2
20180722051936 66 120 0.0 3.0 0.00 1.93 0.00 87 1012.2
20180722051840 66 120 0.0 5.0 0.00 1.93 0.00 87 1012.3
20180722051740 66 145 1.0 5.0 0.00 1.93 0.00 87 1012.2
20180722051621 66 135 1.0 5.0 0.00 1.93 0.00 87 1012.2
20180722051521 66 155 0.0 5.0 0.00 1.93 0.00 87 1012.3
20180722051421 66 155 0.0 5.0 0.00 1.93 0.00 87 1012.3
20180722051322 66 155 0.0 5.0 0.00 1.93 0.00 87 1012.3
20180722051226 66 155 1.0 5.0 0.00 1.93 0.00 87 1012.3
20180722051127 66 159 1.0 5.0 0.00 1.93 0.00 87 1012.3
20180722051027 66 156 1.0 5.0 0.00 1.93 0.00 87 1012.3
20180722050927 66 158 1.0 5.0 0.00 1.93 0.00 87 1012.3
20180722050827 66 129 1.0 5.0 0.00 1.93 0.00 87 1012.3
20180722050727 66 158 1.0 5.0 0.00 1.93 0.00 87 1012.3
20180722050627 66 144 0.0 3.0 0.00 1.93 0.00 87 1012.3
20180722050531 66 149 0.0 3.0 0.00 1.93 0.00 87 1012.3
20180722050431 66 149 0.0 3.0 0.00 1.93 0.00 87 1012.2
20180722050332 66 149 0.0 3.0 0.00 1.93 0.00 87 1012.3
20180722050232 66 118 0.0 3.0 0.00 1.93 0.00 87 1012.3
20180722050132 66 116 0.0 3.0 0.00 1.93 0.00 87 1012.3
20180722050032 67 116 0.0 3.0 0.00 2.17 0.00 87 1012.3
20180722045937 67 111 1.0 3.0 0.00 2.17 0.00 87 1012.2
20180722045837 67 111 1.0 3.0 0.00 2.17 0.00 87 1012.3
20180722045737 67 120 1.0 3.0 0.00 2.17 0.00 87 1012.3
20180722045637 67 140 1.0 3.0 0.00 2.17 0.00 87 1012.3
20180722045537 67 120 0.0 3.0 0.00 2.17 0.00 87 1012.2
20180722045437 67 140 0.0 3.0 0.00 2.17 0.00 87 1012.3
20180722045337 67 145 1.0 3.0 0.00 2.17 0.00 87 1012.2
20180722045241 67 146 0.0 3.0 0.00 2.17 0.00 87 1012.3
20180722045141 67 125 0.0 2.0 0.00 2.17 0.00 87 1012.3
20180722045022 67 125 0.0 2.0 0.00 2.17 0.00 87 1012.3
20180722044941 67 125 0.0 4.0 0.00 2.17 0.00 87 1012.3
20180722044841 67 125 0.0 4.0 0.00 2.17 0.00 87 1012.3
20180722044722 67 131 0.0 4.0 0.00 2.17 0.00 87 1012.2
20180722044626 67 131 0.0 4.0 0.00 2.17 0.00 87 1012.3
20180722044527 67 132 0.0 4.0 0.00 2.17 0.00 87 1012.3
20180722044427 67 156 0.0 4.0 0.00 2.17 0.00 87 1012.3
20180722044327 67 157 1.0 4.0 0.00 2.17 0.00 87 1012.3
20180722044228 67 153 1.0 4.0 0.00 2.17 0.00 87 1012.3
20180722044127 67 129 1.0 4.0 0.00 2.17 0.00 87 1012.3
20180722044030 67 145 1.0 4.0 0.00 2.17 0.00 87 1012.3
20180722043930 67 135 0.0 4.0 0.00 2.17 0.00 87 1012.3
20180722043830 67 135 1.0 4.0 0.00 2.17 0.00 88 1012.3
20180722043730 67 110 1.0 4.0 0.00 2.17 0.00 87 1012.2
20180722043630 67 128 0.0 4.0 0.00 2.17 0.00 87 1012.2
20180722043531 67 133 1.0 4.0 0.00 2.17 0.00 87 1012.3
20180722043431 67 129 1.0 5.0 0.00 2.17 0.00 87 1012.2
20180722043335 67 138 1.0 4.0 0.00 2.17 0.00 88 1012.3
20180722043235 67 143 1.0 4.0 0.00 2.17 0.00 87 1012.3
20180722043135 67 126 0.0 4.0 0.00 2.17 0.00 88 1012.2
20180722043035 67 116 0.0 4.0 0.00 2.17 0.00 88 1012.3
20180722042936 67 116 1.0 4.0 0.00 2.17 0.00 88 1012.2
20180722042836 67 114 1.0 5.0 0.00 2.17 0.00 88 1012.2
20180722042740 67 140 0.0 2.0 0.00 2.17 0.00 88 1012.2
20180722042640 67 139 1.0 2.0 0.00 2.17 0.00 88 1012.2
20180722042540 67 135 1.0 2.0 0.00 2.17 0.00 88 1012.2
20180722042440 67 132 0.0 3.0 0.00 2.17 0.00 88 1012.2
20180722042340 67 127 0.0 3.0 0.00 2.17 0.00 88 1012.2
20180722042239 67 127 0.0 3.0 0.00 2.17 0.00 88 1012.2
20180722042123 67 108 0.0 3.0 0.00 2.17 0.00 88 1012.2
20180722042022 67 108 0.0 3.0 0.00 2.17 0.00 88 1012.2
20180722041922 67 96 0.0 3.0 0.00 2.17 0.00 88 1012.2
20180722041822 67 96 0.0 3.0 0.00 2.17 0.00 88 1012.3
20180722041722 67 81 0.0 3.0 0.00 2.17 0.00 88 1012.2
20180722041622 67 81 0.0 3.0 0.00 2.17 0.00 88 1012.3
20180722041522 67 135 1.0 3.0 0.00 2.17 0.00 88 1012.2
20180722041426 67 106 1.0 3.0 0.00 2.17 0.00 88 1012.2
20180722041325 67 149 0.0 3.0 0.00 2.17 0.00 89 1012.2
20180722041224 67 136 0.0 3.0 0.00 2.17 0.00 88 1012.3
20180722041123 68 137 0.0 3.0 0.00 2.17 0.00 89 1012.3
20180722041023 68 136 0.0 3.0 0.00 2.17 0.00 89 1012.3
20180722040923 68 122 0.0 3.0 0.00 2.17 0.00 89 1012.3
20180722040827 68 133 0.0 3.0 0.00 2.17 0.00 89 1012.3
20180722040727 68 133 1.0 3.0 0.00 2.17 0.00 89 1012.3
20180722040627 68 114 0.0 3.0 0.00 2.17 0.00 89 1012.3
20180722040527 68 110 0.0 3.0 0.00 2.17 0.00 89 1012.3
20180722040427 68 129 0.0 6.0 0.00 2.17 0.00 89 1012.3
20180722040337 68 128 0.0 6.0 0.00 2.17 0.00 89 1012.3
20180722040222 68 152 0.0 6.0 0.00 2.17 0.00 89 1012.4
20180722040126 68 152 0.0 6.0 0.00 2.17 0.00 90 1012.3
20180722040046 68 152 0.0 6.0 0.00 2.17 0.43 90 1012.2
20180722035939 68 152 1.0 6.0 0.00 2.17 0.43 90 1012.3
20180722035839 68 131 1.0 6.0 0.00 2.17 0.43 90 1012.3
20180722035739 68 131 1.0 6.0 0.00 2.17 0.43 90 1012.3
20180722035638 68 122 1.0 6.0 0.00 2.17 0.43 90 1012.3
20180722035522 68 118 0.0 2.0 0.00 2.17 0.43 90 1012.3
20180722035421 68 129 0.0 2.0 0.00 2.17 0.43 90 1012.3
20180722035321 68 129 0.0 2.0 0.00 2.17 0.43 90 1012.3
20180722035222 68 136 0.0 2.0 0.00 2.17 0.43 91 1012.3
20180722035121 68 135 0.0 2.0 0.00 2.17 0.43 91 1012.3
20180722035021 68 136 0.0 2.0 0.00 2.17 0.43 91 1012.3
20180722034922 68 136 0.0 2.0 0.00 2.17 0.43 91 1012.4
20180722034826 68 138 0.0 2.0 0.00 2.17 0.43 91 1012.3
20180722034725 68 149 0.0 1.0 0.00 2.17 0.43 91 1012.4
20180722034625 68 148 0.0 1.0 0.00 2.17 0.43 91 1012.4
20180722034524 68 148 0.0 1.0 0.00 2.17 0.43 91 1012.3
20180722034424 68 148 0.0 1.0 0.00 2.17 0.43 91 1012.3
20180722034324 68 148 0.0 1.0 0.00 2.17 0.43 91 1012.3
20180722034228 68 145 0.0 0.0 0.00 2.17 0.43 91 1012.3
20180722034128 68 144 0.0 0.0 0.00 2.17 0.43 91 1012.3
20180722034029 68 145 0.0 1.0 0.00 2.17 0.43 91 1012.3
20180722033929 68 145 0.0 1.0 0.00 2.17 0.43 91 1012.3
20180722033829 68 143 0.0 1.0 0.00 2.17 0.43 91 1012.3
20180722033729 68 145 0.0 1.0 0.00 2.17 0.43 90 1012.4
20180722033629 68 145 0.0 1.0 0.00 2.17 0.43 91 1012.3
20180722033533 68 145 0.0 1.0 0.00 2.17 0.43 91 1012.4
20180722033434 68 145 0.0 1.0 0.00 2.17 0.43 91 1012.4
20180722033333 68 143 0.0 1.0 0.00 2.17 0.43 91 1012.4
20180722033233 68 145 0.0 2.0 0.00 2.17 0.43 91 1012.3
20180722033133 68 145 0.0 2.0 0.00 2.17 0.43 91 1012.4
20180722033033 68 147 0.0 2.0 0.00 2.17 0.43 91 1012.4
20180722032937 68 147 0.0 2.0 0.00 2.17 0.43 91 1012.4
20180722032837 68 149 0.0 2.0 0.00 2.17 0.43 91 1012.4
20180722032737 68 189 0.0 2.0 0.00 2.17 0.43 91 1012.4
20180722032637 68 126 0.0 2.0 0.00 2.17 0.43 92 1012.4
20180722032537 68 121 0.0 2.0 0.00 2.17 0.43 92 1012.4
20180722032437 68 122 0.0 2.0 0.00 2.17 0.43 92 1012.4
20180722032321 68 122 0.0 3.0 0.00 2.17 0.43 92 1012.5
20180722032221 68 142 0.0 3.0 0.00 2.17 0.43 92 1012.5
20180722032121 68 141 0.0 3.0 0.00 2.17 0.43 92 1012.5
20180722032021 68 142 0.0 3.0 0.00 2.17 0.43 92 1012.5
20180722031921 68 141 0.0 3.0 0.00 2.17 0.43 92 1012.5
20180722031821 68 141 0.0 3.0 0.00 2.17 0.43 92 1012.5
20180722031740 68 141 0.0 3.0 0.00 2.17 0.43 92 1012.5
20180722031624 68 120 0.0 3.0 0.00 2.17 0.43 92 1012.5
20180722031524 68 120 0.0 3.0 0.00 2.17 0.43 92 1012.5
20180722031424 68 141 0.0 1.0 0.00 2.17 0.43 92 1012.4
20180722031324 68 142 0.0 1.0 0.00 2.17 0.43 92 1012.4
20180722031223 68 142 0.0 1.0 0.00 2.17 0.43 92 1012.4
20180722031123 68 143 0.0 1.0 0.00 2.17 0.43 92 1012.5
20180722031027 68 143 0.0 1.0 0.00 2.17 0.43 93 1012.4
20180722030927 68 143 0.0 1.0 0.00 2.17 0.43 93 1012.3
20180722030827 68 143 0.0 1.0 0.00 2.17 0.43 93 1012.4
20180722030727 68 143 0.0 1.0 0.00 2.17 0.43 93 1012.3
20180722030627 68 143 0.0 1.0 0.00 2.17 0.43 93 1012.4
20180722030527 68 145 0.0 0.0 0.00 2.17 0.43 93 1012.4
20180722030427 68 145 0.0 0.0 0.00 2.17 0.43 93 1012.4
20180722030331 68 145 0.0 2.0 0.00 2.17 0.43 93 1012.4
20180722030231 68 146 0.0 2.0 0.00 2.17 0.43 93 1012.4
20180722030131 68 146 0.0 2.0 0.00 2.17 0.43 93 1012.4
20180722030030 68 146 0.0 2.0 0.00 2.48 0.43 93 1012.4
20180722025929 68 146 0.0 2.0 0.00 2.48 0.43 93 1012.4
20180722025829 68 146 0.0 2.0 0.00 2.48 0.43 93 1012.4
20180722025733 68 146 0.0 2.0 0.00 2.48 0.43 93 1012.4
20180722025632 68 146 0.0 2.0 0.00 2.48 0.43 93 1012.4
20180722025532 68 146 0.0 2.0 0.00 2.48 0.43 93 1012.5
20180722025432 68 173 0.0 0.0 0.00 2.48 0.43 93 1012.4
20180722025331 68 174 0.0 1.0 0.00 2.48 0.43 93 1012.4
20180722025231 68 174 0.0 1.0 0.00 2.48 0.43 93 1012.4
20180722025132 68 173 0.0 1.0 0.00 2.48 0.43 93 1012.5
20180722025036 68 174 0.0 1.0 0.00 2.48 0.43 93 1012.5
20180722024936 68 174 0.0 1.0 0.00 2.48 0.43 93 1012.4
20180722024836 68 173 0.0 1.0 0.00 2.48 0.43 93 1012.5
20180722024737 68 174 0.0 1.0 0.00 2.48 0.43 93 1012.5
20180722024637 68 174 0.0 1.0 0.00 2.48 0.43 93 1012.5
20180722024537 68 173 0.0 1.0 0.00 2.48 0.43 93 1012.5
20180722024442 68 164 0.0 1.0 0.00 2.48 0.43 93 1012.5
20180722024333 68 164 0.0 1.0 0.00 2.48 0.43 93 1012.5
20180722024233 68 164 0.0 1.0 0.00 2.48 0.43 93 1012.5
20180722024134 68 164 0.0 1.0 0.00 2.48 0.43 93 1012.5
20180722024034 68 164 0.0 1.0 0.00 2.48 0.43 93 1012.5
20180722023935 68 164 0.0 1.0 0.00 2.48 0.43 93 1012.5
20180722023835 68 164 0.0 1.0 0.00 2.48 0.43 93 1012.5
20180722023739 68 164 0.0 3.0 0.00 2.48 0.43 93 1012.5
20180722023639 68 126 0.0 3.0 0.00 2.48 0.43 93 1012.5
20180722023538 68 126 0.0 3.0 0.00 2.48 0.43 93 1012.5
20180722023438 68 127 0.0 3.0 0.00 2.48 0.43 93 1012.5
20180722023338 68 127 0.0 3.0 0.00 2.48 0.43 93 1012.5
20180722023238 68 127 0.0 3.0 0.00 2.48 0.43 93 1012.5
20180722023122 68 127 0.0 3.0 0.00 2.48 0.43 93 1012.5
20180722023022 68 127 0.0 3.0 0.00 2.48 0.43 93 1012.5
20180722022922 68 127 0.0 3.0 0.00 2.48 0.43 93 1012.5
20180722022823 68 119 0.0 5.0 0.00 2.48 0.43 93 1012.4
20180722022724 68 119 0.0 5.0 0.00 2.48 0.43 93 1012.5
20180722022624 68 118 0.0 5.0 0.00 2.48 0.43 93 1012.4
20180722022529 68 120 0.0 5.0 0.00 2.48 0.43 93 1012.6
20180722022430 68 120 0.0 5.0 0.00 2.48 0.43 93 1012.5
20180722022330 68 120 0.0 5.0 0.00 2.48 0.43 93 1012.5
20180722022230 68 120 0.0 5.0 0.00 2.48 0.43 93 1012.6
20180722022131 68 120 1.0 5.0 0.00 2.48 0.43 93 1012.5
20180722022032 68 120 1.0 5.0 0.00 2.48 0.43 94 1012.5
20180722021933 68 139 0.0 4.0 0.00 2.48 0.43 93 1012.5
20180722021839 68 158 0.0 0.0 0.00 2.48 0.43 93 1012.5
20180722021739 68 158 0.0 0.0 0.00 2.48 0.43 94 1012.5
20180722021640 68 158 0.0 0.0 0.00 2.48 0.43 93 1012.5
20180722021541 68 158 0.0 0.0 0.00 2.48 0.43 93 1012.6
20180722021422 68 158 0.0 0.0 0.00 2.48 0.43 94 1012.4
20180722021323 68 158 0.0 0.0 0.00 2.48 0.43 94 1012.6
20180722021227 68 158 0.0 0.0 0.00 2.48 0.43 94 1012.5
20180722021128 68 158 0.0 0.0 0.00 2.48 0.43 93 1012.6
20180722021029 68 158 0.0 0.0 0.00 2.48 0.43 93 1012.6
20180722020930 68 158 0.0 0.0 0.00 2.48 0.43 94 1012.6
20180722020830 68 158 0.0 0.0 0.00 2.48 0.43 94 1012.6
20180722020731 68 158 0.0 0.0 0.00 2.48 0.43 93 1012.7
20180722020636 68 158 0.0 0.0 0.00 2.48 0.43 93 1012.6
20180722020537 68 158 0.0 1.0 0.00 2.48 0.43 93 1012.7
20180722020438 68 158 0.0 1.0 0.00 2.48 0.43 94 1012.7
20180722020338 68 158 0.0 1.0 0.00 2.48 0.43 94 1012.7
20180722020239 68 158 0.0 1.0 0.00 2.48 0.43 94 1012.7
20180722020121 68 158 0.0 1.0 0.00 2.48 0.43 94 1012.6
20180722020025 68 157 0.0 1.0 0.00 3.31 0.43 93 1012.7
20180722015925 68 157 0.0 1.0 0.00 3.31 0.43 94 1012.6
20180722015826 68 156 0.0 1.0 0.00 3.31 0.43 93 1012.6
20180722015727 68 156 0.0 1.0 0.00 3.31 0.43 93 1012.6
20180722015628 68 147 0.0 0.0 0.00 3.31 0.43 93 1012.6
20180722015529 68 148 0.0 0.0 0.00 3.31 0.43 93 1012.7
20180722015429 68 148 0.0 0.0 0.00 3.31 0.43 94 1012.7
20180722015335 68 150 0.0 0.0 0.00 3.31 0.43 94 1012.6
20180722015237 68 150 0.0 0.0 0.00 3.31 0.43 94 1012.6
20180722015137 68 150 0.0 0.0 0.00 3.31 0.43 94 1012.6
20180722015038 68 150 0.0 0.0 0.00 3.31 0.43 94 1012.6
20180722014940 68 150 0.0 0.0 0.00 3.31 0.43 94 1012.6
20180722014841 68 150 0.0 0.0 0.00 3.31 0.43 94 1012.6
20180722014725 68 150 0.0 0.0 0.00 3.31 0.43 94 1012.6
20180722014626 68 150 0.0 0.0 0.00 3.31 0.43 94 1012.5
20180722014528 68 150 0.0 0.0 0.00 3.31 0.43 94 1012.5
20180722014429 68 150 0.0 0.0 0.00 3.31 0.43 94 1012.5
20180722014330 68 150 0.0 0.0 0.00 3.31 0.43 94 1012.5
20180722014231 68 150 0.0 1.0 0.00 3.31 0.43 94 1012.5
20180722014137 68 150 0.0 1.0 0.00 3.31 0.43 94 1012.4
20180722014038 68 150 0.0 1.0 0.00 3.31 0.43 94 1012.4
20180722013938 68 150 0.0 1.0 0.00 3.31 0.43 94 1012.4
20180722013839 68 150 0.0 1.0 0.00 3.31 0.43 94 1012.4
20180722013740 68 150 0.0 1.0 0.00 3.31 0.43 94 1012.4
20180722013621 68 150 0.0 1.0 0.00 3.31 0.43 94 1012.4
20180722013526 68 150 0.0 1.0 0.00 3.31 0.43 94 1012.5
20180722013427 68 150 0.0 1.0 0.00 3.31 0.43 94 1012.4
20180722013327 68 149 0.0 1.0 0.00 3.31 0.43 94 1012.4
20180722013227 68 149 0.0 1.0 0.00 3.31 0.43 94 1012.3
20180722013129 68 149 0.0 1.0 0.00 3.31 0.43 94 1012.4
20180722013030 68 149 0.0 1.0 0.00 3.31 0.43 94 1012.3
20180722012930 68 149 0.0 0.0 0.00 3.31 0.43 94 1012.3
20180722012835 68 149 0.0 2.0 0.00 3.31 0.43 94 1012.3
20180722012734 68 149 0.0 2.0 0.00 3.31 0.43 94 1012.3
20180722012636 68 149 0.0 2.0 0.00 3.31 0.43 94 1012.3
20180722012536 68 149 0.0 2.0 0.00 3.31 0.43 94 1012.2
20180722012437 68 149 0.0 2.0 0.00 3.31 0.43 94 1012.3
20180722012337 68 149 0.0 2.0 0.00 3.31 0.43 94 1012.3
20180722012222 68 149 0.0 2.0 0.00 3.31 0.43 94 1012.3
20180722012123 68 149 0.0 2.0 0.00 3.31 0.43 94 1012.2
20180722012024 68 149 0.0 2.0 0.00 3.31 0.43 94 1012.3
20180722011925 68 122 0.0 0.0 0.00 3.31 0.43 94 1012.3
20180722011825 68 123 0.0 0.0 0.00 3.31 0.43 94 1012.3
20180722011725 68 123 0.0 0.0 0.00 3.31 0.43 94 1012.3
20180722011631 68 122 0.0 0.0 0.00 3.31 0.43 94 1012.2
20180722011532 68 122 0.0 0.0 0.00 3.31 0.43 94 1012.3
20180722011432 68 123 0.0 0.0 0.00 3.31 0.43 94 1012.3
20180722011333 68 122 0.0 0.0 0.00 3.31 0.43 94 1012.3
20180722011234 68 123 0.0 0.0 0.00 3.31 0.43 94 1012.2
20180722011135 68 122 0.0 0.0 0.00 3.31 0.43 94 1012.2
20180722011035 68 122 0.0 0.0 0.00 3.31 0.43 94 1012.2
20180722010940 68 123 0.0 0.0 0.00 3.31 0.43 94 1012.2
20180722010822 68 122 0.0 0.0 0.00 3.31 0.43 94 1012.2
20180722010722 68 123 0.0 0.0 0.00 3.31 0.43 94 1012.1
20180722010623 68 123 0.0 0.0 0.00 3.31 0.43 94 1012.2
20180722010524 68 123 0.0 0.0 0.00 3.31 0.43 94 1012.2
20180722010424 68 123 0.0 0.0 0.00 3.31 0.43 94 1012.2
20180722010329 68 123 0.0 0.0 0.00 3.31 0.43 94 1012.2
20180722010229 68 122 0.0 0.0 0.00 3.31 0.43 94 1012.2
20180722010131 68 122 0.0 0.0 0.00 3.31 0.43 94 1012.2
20180722010031 68 123 0.0 0.0 0.00 3.70 0.43 94 1012.2
20180722005933 68 123 0.0 0.0 0.00 3.70 0.43 94 1012.2
20180722005834 68 122 0.0 0.0 0.00 3.70 0.43 94 1012.2
20180722005739 68 123 0.0 0.0 0.00 3.70 0.43 94 1012.2
20180722005640 68 101 0.0 0.0 0.00 3.70 0.43 94 1012.2
20180722005540 68 100 0.0 0.0 0.00 3.70 0.43 94 1012.3
20180722005440 68 100 0.0 0.0 0.00 3.70 0.43 94 1012.2
20180722005321 68 100 0.0 0.0 0.00 3.70 0.43 94 1012.2
20180722005223 68 100 0.0 0.0 0.00 3.70 0.43 94 1012.2
20180722005128 68 100 0.0 0.0 0.00 3.70 0.43 94 1012.2
20180722005030 68 100 0.0 0.0 0.00 3.70 0.43 94 1012.2
20180722004930 68 100 0.0 0.0 0.00 3.70 0.43 94 1012.2
20180722004832 68 100 0.0 0.0 0.00 3.70 0.43 94 1012.1
20180722004733 68 100 0.0 0.0 0.00 3.70 0.43 94 1012.0
20180722004634 68 100 0.0 0.0 0.00 3.70 0.43 94 1012.2
20180722004534 68 100 0.0 0.0 0.00 3.70 0.43 94 1012.2
20180722004439 68 100 0.0 0.0 0.00 3.70 0.43 94 1012.2
20180722004340 68 100 0.0 0.0 0.00 3.70 0.43 94 1012.3
20180722004240 68 100 0.0 0.0 0.00 3.70 0.43 94 1012.2
20180722004121 68 100 0.0 0.0 0.00 3.70 0.43 94 1012.2
20180722004022 68 100 0.0 0.0 0.00 3.70 0.43 94 1012.3
20180722003923 68 100 0.0 0.0 0.00 3.70 0.43 94 1012.2
20180722003828 68 100 0.0 0.0 0.00 3.70 0.43 94 1012.3
20180722003727 68 100 0.0 0.0 0.00 3.70 0.43 94 1012.2
20180722003628 68 100 0.0 0.0 0.00 3.70 0.43 94 1012.3
20180722003529 68 100 0.0 0.0 0.00 3.70 0.43 94 1012.2
20180722003430 68 100 0.0 0.0 0.00 3.70 0.43 94 1012.2
20180722003331 68 100 0.0 0.0 0.00 3.70 0.43 94 1012.2
20180722003236 68 100 0.0 0.0 0.00 3.70 0.43 94 1012.2
20180722003137 68 100 0.0 0.0 0.00 3.70 0.43 94 1012.1
20180722003037 68 100 0.0 0.0 0.00 3.70 0.43 94 1012.1
20180722002939 68 100 0.0 0.0 0.00 3.70 0.43 94 1012.2
20180722002839 68 100 0.0 0.0 0.00 3.70 0.43 94 1012.0
20180722002740 68 100 0.0 0.0 0.00 3.70 0.43 94 1012.1
20180722002624 68 100 0.0 0.0 0.00 3.70 0.43 94 1012.0
20180722002524 68 100 0.0 0.0 0.00 3.70 0.43 94 1012.2
20180722002425 68 100 0.0 0.0 0.00 3.70 0.43 94 1012.2
20180722002326 68 100 0.0 0.0 0.00 3.70 0.43 94 1012.2
20180722002227 68 100 0.0 0.0 0.00 3.70 0.43 93 1012.1
20180722002129 68 100 0.0 0.0 0.00 3.70 0.43 94 1012.1
20180722002030 68 100 0.0 0.0 0.00 3.70 0.43 93 1012.2
20180722001934 68 100 0.0 0.0 0.00 3.70 0.43 93 1012.1
20180722001835 68 100 0.0 0.0 0.00 3.70 0.43 93 1012.2
20180722001735 68 100 0.0 0.0 0.00 3.70 0.43 93 1012.1
20180722001635 68 100 0.0 0.0 0.00 3.70 0.43 93 1012.0
20180722001535 68 100 0.0 0.0 0.00 3.70 0.43 93 1012.0
20180722001435 68 100 0.0 0.0 0.00 3.70 0.43 93 1012.0
20180722001340 68 100 0.0 0.0 0.00 3.70 0.43 93 1012.0
20180722001221 68 100 0.0 0.0 0.00 3.70 0.43 94 1012.1
20180722001122 68 100 0.0 0.0 0.04 3.70 0.43 94 1012.0
20180722001023 68 100 0.0 0.0 0.04 3.70 0.43 94 1012.0
20180722000925 68 100 0.0 0.0 0.08 3.70 0.43 94 1012.0
20180722000827 68 100 0.0 0.0 0.24 3.70 0.43 94 1012.1
20180722000730 68 100 0.0 0.0 0.31 3.70 0.43 94 1012.1
20180722000631 68 100 0.0 0.0 0.47 3.70 0.43 94 1012.1
20180722000532 68 100 0.0 0.0 0.55 3.70 0.43 94 1012.0
20180722000432 68 100 0.0 0.0 0.71 3.70 0.43 94 1012.0
20180722000333 68 100 0.0 0.0 0.75 3.70 0.43 94 1012.0
20180722000235 68 100 0.0 0.0 0.79 3.70 0.43 94 1012.2
20180722000136 68 100 0.0 0.0 0.83 3.70 0.43 94 1012.2
20180722000040 68 100 0.0 0.0 0.91 3.70 0.43 94 1012.2
20180721235921 68 100 0.0 0.0 0.98 3.70 0.43 94 1012.3
20180721235822 68 100 0.0 0.0 1.02 3.70 0.43 94 1012.2
20180721235723 68 100 0.0 0.0 1.06 3.70 0.43 93 1012.2
20180721235623 68 100 0.0 0.0 1.06 3.70 0.43 93 1012.3
20180721235523 68 100 0.0 0.0 1.10 3.70 0.43 93 1012.3
20180721235427 68 100 0.0 0.0 1.18 3.70 0.43 93 1012.2
20180721235328 68 100 0.0 0.0 1.26 3.70 0.43 93 1012.2
20180721235228 68 100 0.0 0.0 1.30 3.70 0.43 93 1012.3
20180721235128 68 100 0.0 0.0 1.34 3.70 0.43 93 1012.3
20180721235028 68 100 0.0 0.0 1.42 3.70 0.43 93 1012.4
20180721234928 68 100 0.0 0.0 1.42 3.70 0.43 93 1012.4
20180721234832 68 100 0.0 0.0 1.46 3.70 0.43 93 1012.5
20180721234732 68 100 0.0 0.0 1.50 3.70 0.43 93 1012.5
20180721234632 68 100 0.0 0.0 1.50 3.70 0.43 93 1012.5
20180721234533 68 100 0.0 0.0 1.50 3.70 0.43 93 1012.5
20180721234433 68 100 0.0 0.0 1.50 3.70 0.43 93 1012.5
20180721234333 68 100 0.0 0.0 1.50 3.70 0.43 94 1012.5
20180721234233 68 100 0.0 0.0 1.50 3.70 0.43 94 1012.5
20180721234138 68 100 0.0 0.0 1.50 3.70 0.43 94 1012.4
20180721234037 68 100 0.0 0.0 1.50 3.70 0.43 94 1012.5
20180721233937 68 100 0.0 0.0 1.54 3.70 0.43 93 1012.4
20180721233838 68 100 0.0 0.0 1.54 3.70 0.43 93 1012.4
20180721233738 68 100 0.0 0.0 1.54 3.70 0.43 93 1012.5
20180721233638 68 100 0.0 0.0 1.54 3.70 0.43 93 1012.5
20180721233523 68 100 0.0 0.0 1.54 3.70 0.43 93 1012.5
20180721233424 68 100 0.0 0.0 1.54 3.70 0.43 93 1012.5
20180721233326 68 100 0.0 3.0 1.54 3.70 0.43 93 1012.4
20180721233226 68 100 0.0 3.0 1.54 3.70 0.43 93 1012.5
20180721233126 68 100 0.0 3.0 1.54 3.70 0.43 93 1012.4
20180721233027 68 100 0.0 3.0 1.54 3.70 0.43 93 1012.5
20180721232931 68 100 0.0 3.0 1.54 3.70 0.43 93 1012.4
20180721232832 68 100 0.0 3.0 1.54 3.70 0.43 93 1012.4
20180721232732 68 100 0.0 3.0 1.54 3.70 0.43 93 1012.5
20180721232632 68 100 0.0 3.0 1.57 3.70 0.43 93 1012.5
20180721232532 68 100 0.0 3.0 1.57 3.70 0.43 93 1012.6
20180721232431 68 100 0.0 3.0 1.57 3.70 0.43 93 1012.6
20180721232332 68 143 0.0 0.0 1.57 3.70 0.43 93 1012.6
20180721232237 68 143 0.0 0.0 1.61 3.70 0.43 93 1012.5
20180721232136 68 143 0.0 0.0 1.61 3.70 0.43 93 1012.6
20180721232037 68 143 0.0 0.0 1.65 3.70 0.43 93 1012.6
20180721231937 68 143 0.0 0.0 1.65 3.70 0.43 93 1012.6
20180721231837 68 142 0.0 0.0 1.65 3.70 0.43 93 1012.6
20180721231738 68 143 0.0 0.0 1.69 3.70 0.43 93 1012.6
20180721231621 68 143 0.0 0.0 1.73 3.70 0.43 92 1012.6
20180721231521 68 143 0.0 0.0 1.73 3.70 0.43 92 1012.6
20180721231421 68 143 0.0 0.0 1.73 3.70 0.43 92 1012.6
20180721231340 68 143 0.0 1.0 1.77 3.70 0.43 92 1012.6
20180721231240 68 143 0.0 1.0 1.77 3.70 0.43 92 1012.5
20180721231140 68 143 0.0 1.0 1.73 3.66 0.43 92 1012.5
20180721231024 68 143 0.0 1.0 1.73 3.62 0.42 92 1012.5
20180721230924 68 142 0.0 1.0 1.65 3.54 0.40 92 1012.6
20180721230825 68 155 0.0 1.0 1.50 3.39 0.38 92 1012.6
20180721230724 68 155 0.0 1.0 1.42 3.31 0.35 92 1012.7
20180721230624 68 155 0.0 1.0 1.26 3.15 0.32 92 1012.7
20180721230525 68 155 0.0 1.0 1.14 3.03 0.30 92 1012.7
20180721230425 68 155 0.0 1.0 1.10 2.95 0.28 92 1012.7
20180721230330 68 155 0.0 1.0 1.06 2.91 0.28 92 1012.7
20180721230230 68 155 0.0 1.0 1.02 2.87 0.27 92 1012.7
20180721230130 68 155 0.0 1.0 0.98 2.83 0.26 92 1012.6
20180721230030 68 155 0.0 3.0 0.91 2.76 0.24 92 1012.6
20180721225930 68 155 0.0 5.0 0.83 2.68 0.23 92 1012.6
20180721225830 68 155 0.0 7.0 0.83 2.68 0.23 92 1012.5
20180721225735 68 170 0.0 7.0 0.79 2.64 0.22 92 1012.5
20180721225635 68 169 0.0 7.0 0.75 2.60 0.21 92 1012.5
20180721225536 68 169 0.0 7.0 0.67 2.52 0.20 92 1012.6
20180721225436 68 169 0.0 7.0 0.63 2.48 0.19 92 1012.6
20180721225337 68 172 1.0 7.0 0.59 2.44 0.18 91 1012.8
20180721225238 68 167 2.0 7.0 0.51 2.36 0.17 91 1012.8
20180721225122 68 161 4.0 7.0 0.47 2.32 0.16 91 1012.8
20180721225023 68 156 4.0 7.0 0.43 2.28 0.15 91 1012.7
20180721224922 68 144 3.0 7.0 0.39 2.24 0.14 91 1012.7
20180721224823 68 122 2.0 5.0 0.39 2.24 0.14 91 1012.7
20180721224725 68 150 0.0 2.0 0.35 2.20 0.13 91 1012.6
20180721224626 68 140 0.0 0.0 0.35 2.20 0.13 91 1012.5
20180721224526 68 140 0.0 0.0 0.35 2.20 0.13 91 1012.4
20180721224430 68 140 0.0 0.0 0.35 2.20 0.13 91 1012.4
20180721224332 68 140 0.0 0.0 0.35 2.20 0.13 91 1012.4
20180721224233 68 140 0.0 0.0 0.35 2.20 0.13 91 1012.3
20180721224134 68 140 0.0 0.0 0.35 2.20 0.13 91 1012.3
20180721224035 68 140 0.0 0.0 0.35 2.20 0.13 91 1012.3
20180721223935 68 140 0.0 0.0 0.31 2.17 0.13 91 1012.2
20180721223821 68 140 0.0 0.0 0.31 2.17 0.13 91 1012.2
20180721223721 68 140 0.0 0.0 0.31 2.17 0.13 91 1012.3
20180721223622 68 140 0.0 0.0 0.31 2.17 0.13 91 1012.3
20180721223522 68 140 0.0 0.0 0.31 2.17 0.13 91 1012.2
20180721223422 68 140 0.0 1.0 0.31 2.17 0.13 90 1012.2
20180721223323 68 140 0.0 1.0 0.31 2.17 0.13 90 1012.2
20180721223227 68 140 0.0 1.0 0.31 2.17 0.13 90 1012.3
20180721223127 68 140 0.0 1.0 0.31 2.17 0.13 90 1012.3
20180721223027 68 140 0.0 1.0 0.31 2.17 0.13 90 1012.2
20180721222927 68 140 0.0 1.0 0.31 2.17 0.13 90 1012.3
20180721222828 68 139 0.0 2.0 0.31 2.17 0.13 90 1012.3
20180721222728 68 140 0.0 2.0 0.31 2.17 0.13 90 1012.2
20180721222628 68 140 0.0 3.0 0.28 2.13 0.12 90 1012.4
20180721222532 68 140 0.0 3.0 0.28 2.13 0.12 90 1012.4
20180721222431 68 140 0.0 3.0 0.28 2.13 0.12 90 1012.4
20180721222331 68 141 0.0 3.0 0.31 2.13 0.12 90 1012.4
20180721222232 68 140 0.0 3.0 0.28 2.09 0.11 90 1012.4
20180721222132 68 140 0.0 3.0 0.24 2.05 0.10 90 1012.4
20180721222033 68 142 0.0 7.0 0.24 2.05 0.10 90 1012.5
20180721221938 68 134 0.0 7.0 0.24 2.05 0.10 90 1012.5
20180721221837 68 135 1.0 7.0 0.20 2.01 0.09 90 1012.5
20180721221738 68 140 1.0 7.0 0.20 2.01 0.09 89 1012.5
20180721221639 69 143 1.0 7.0 0.16 1.97 0.09 89 1012.4
20180721221540 69 143 0.0 7.0 0.16 1.97 0.09 89 1012.4
20180721221421 69 149 0.0 7.0 0.16 1.97 0.09 89 1012.5
20180721221326 69 138 1.0 7.0 0.12 1.93 0.08 88 1012.4
20180721221227 69 143 2.0 7.0 0.12 1.93 0.08 88 1012.5
20180721221128 69 141 2.0 5.0 0.08 1.89 0.07 88 1012.6
20180721221028 69 158 1.0 6.0 0.08 1.89 0.07 88 1012.6
20180721220929 69 128 1.0 6.0 0.08 1.89 0.07 88 1012.6
20180721220829 69 150 2.0 6.0 0.08 1.89 0.07 88 1012.5
20180721220730 69 150 2.0 6.0 0.08 1.89 0.07 88 1012.5
20180721220634 69 149 2.0 6.0 0.08 1.89 0.07 88 1012.6
20180721220534 69 108 3.0 9.0 0.08 1.89 0.07 88 1012.6
20180721220435 69 129 2.0 9.0 0.04 1.85 0.06 88 1012.5
20180721220335 69 152 1.0 9.0 0.04 1.85 0.06 88 1012.4
20180721220236 69 102 0.0 9.0 0.04 1.85 0.06 88 1012.4
20180721220136 69 102 1.0 9.0 0.04 1.85 0.06 88 1012.4
20180721220040 69 102 1.0 9.0 0.04 1.85 0.06 88 1012.5
20180721215921 69 121 0.0 9.0 0.04 1.85 0.06 88 1012.5
20180721215836 69 112 1.0 5.0 0.04 1.85 0.06 88 1012.5
20180721215621 69 128 0.0 5.0 0.04 1.85 0.06 88 1012.4
20180721215521 69 128 1.0 5.0 0.04 1.85 0.06 88 1012.4
20180721215427 69 127 2.0 5.0 0.04 1.85 0.06 88 1012.4
20180721215328 69 122 1.0 5.0 0.04 1.85 0.06 88 1012.4
20180721215228 69 141 0.0 5.0 0.04 1.85 0.06 88 1012.5
20180721215129 69 141 1.0 10.0 0.04 1.85 0.06 88 1012.6
20180721215029 69 141 1.0 10.0 0.04 1.85 0.06 88 1012.5
20180721214929 69 133 0.0 10.0 0.04 1.85 0.06 88 1012.5
20180721214833 69 104 1.0 10.0 0.04 1.85 0.06 88 1012.5
20180721214733 69 105 1.0 10.0 0.04 1.85 0.06 88 1012.6
20180721214633 69 70 1.0 10.0 0.04 1.85 0.06 88 1012.6
20180721214533 69 142 1.0 10.0 0.04 1.85 0.06 87 1012.7
20180721214434 69 131 2.0 10.0 0.04 1.85 0.06 87 1012.7
20180721214333 69 131 2.0 10.0 0.04 1.85 0.06 87 1012.7
20180721214234 69 145 1.0 4.0 0.04 1.85 0.06 87 1012.7
20180721214138 69 137 1.0 4.0 0.04 1.85 0.06 87 1012.7
20180721214038 69 118 1.0 6.0 0.04 1.85 0.06 87 1012.7
20180721213938 69 125 1.0 6.0 0.04 1.85 0.06 87 1012.8
20180721213838 69 181 2.0 6.0 0.04 1.85 0.06 87 1012.7
20180721213739 69 133 2.0 6.0 0.04 1.85 0.06 87 1012.7
20180721213639 69 135 0.0 10.0 0.04 1.85 0.06 87 1012.6
20180721213523 69 112 1.0 10.0 0.04 1.85 0.06 87 1012.6
20180721213422 70 108 1.0 10.0 0.04 1.85 0.06 87 1012.7
20180721213322 70 158 1.0 11.0 0.04 1.85 0.06 86 1012.7
20180721213222 70 117 2.0 11.0 0.04 1.85 0.06 86 1012.7
20180721213123 70 112 2.0 11.0 0.04 1.85 0.06 86 1012.7
20180721213023 70 80 1.0 11.0 0.04 1.85 0.06 86 1012.7
20180721212927 70 112 2.0 11.0 0.04 1.85 0.06 86 1012.7
20180721212826 70 112 3.0 11.0 0.04 1.85 0.06 85 1012.7
20180721212727 70 156 3.0 11.0 0.04 1.85 0.06 85 1012.7
20180721212627 71 131 4.0 11.0 0.04 1.85 0.06 84 1012.7
20180721212528 71 104 5.0 11.0 0.04 1.85 0.06 83 1012.7
20180721212428 71 103 5.0 10.0 0.00 1.81 0.06 83 1012.7
20180721212328 71 138 5.0 13.0 0.00 1.81 0.06 82 1012.7
20180721212232 71 100 5.0 13.0 0.00 1.81 0.06 82 1012.7
20180721212133 71 166 5.0 13.0 0.00 1.81 0.06 82 1012.7
20180721212033 71 114 3.0 13.0 0.00 1.81 0.06 81 1012.7
20180721211933 72 145 3.0 13.0 0.00 1.81 0.06 82 1012.6
20180721211833 72 148 4.0 13.0 0.00 1.81 0.06 81 1012.7
20180721211732 72 154 4.0 13.0 0.00 1.81 0.06 80 1012.6
20180721211636 72 112 4.0 13.0 0.00 1.81 0.06 80 1012.6
20180721211536 72 139 4.0 13.0 0.00 1.81 0.06 80 1012.5
20180721211436 72 144 3.0 13.0 0.00 1.81 0.06 80 1012.5
20180721211336 73 118 2.0 11.0 0.00 1.81 0.06 79 1012.6
20180721211237 73 110 2.0 11.0 0.00 1.81 0.06 78 1012.6
20180721211137 73 108 3.0 17.0 0.00 1.81 0.06 78 1012.5
20180721211021 73 144 5.0 17.0 0.00 1.81 0.06 77 1012.6
20180721210922 73 135 4.0 17.0 0.00 1.81 0.06 77 1012.4
20180721210823 73 160 4.0 23.0 0.00 1.81 0.06 76 1012.6
20180721210724 73 92 5.0 23.0 0.00 1.81 0.06 76 1012.6
20180721210625 74 110 6.0 23.0 0.00 1.81 0.06 76 1012.5
20180721210526 74 137 7.0 23.0 0.00 1.81 0.06 76 1012.5
20180721210427 74 133 7.0 23.0 0.00 1.81 0.06 76 1012.6
20180721210332 74 118 7.0 23.0 0.00 1.81 0.06 76 1012.4
20180721210233 74 122 6.0 23.0 0.00 1.81 0.06 76 1012.5
20180721210134 74 114 9.0 23.0 0.00 1.81 0.06 76 1012.4
20180721210034 75 89 9.0 23.0 0.00 1.81 0.06 75 1012.4
20180721205935 75 97 6.0 17.0 0.00 1.81 0.06 75 1012.4
20180721205836 75 124 4.0 10.0 0.00 1.81 0.06 75 1012.4
20180721205721 75 127 2.0 10.0 0.00 1.81 0.06 75 1012.3
20180721205622 75 111 3.0 10.0 0.00 1.81 0.06 74 1012.3
20180721205523 75 161 3.0 10.0 0.00 1.81 0.06 74 1012.3
20180721205424 75 129 3.0 10.0 0.00 1.81 0.06 73 1012.3
20180721205326 75 162 3.0 10.0 0.00 1.81 0.06 73 1012.3
20180721205227 75 155 4.0 10.0 0.00 1.81 0.06 72 1012.2
20180721205132 75 122 5.0 11.0 0.00 1.81 0.06 72 1012.2
20180721205033 75 138 4.0 10.0 0.00 1.81 0.06 72 1012.2
20180721204935 75 114 4.0 10.0 0.00 1.81 0.06 72 1012.3
20180721204836 75 146 4.0 10.0 0.00 1.81 0.06 72 1012.2
20180721204737 75 131 3.0 10.0 0.00 1.81 0.06 72 1012.2
20180721204637 75 87 3.0 9.0 0.00 1.81 0.06 72 1012.2
20180721204523 75 114 4.0 9.0 0.00 1.81 0.06 73 1012.2
20180721204423 75 114 2.0 10.0 0.00 1.81 0.06 73 1012.2
20180721204324 76 149 2.0 10.0 0.00 1.81 0.06 73 1012.2
20180721204224 76 137 2.0 10.0 0.00 1.81 0.06 73 1012.2
20180721204125 76 77 1.0 10.0 0.00 1.81 0.06 74 1012.2
20180721204025 76 140 1.0 10.0 0.00 1.81 0.06 74 1012.2
20180721203926 76 139 2.0 10.0 0.00 1.81 0.06 73 1012.1
20180721203830 76 139 4.0 10.0 0.00 1.81 0.06 73 1012.2
20180721203730 76 120 6.0 10.0 0.00 1.81 0.06 72 1012.1
20180721203631 76 134 6.0 10.0 0.00 1.81 0.06 72 1012.2
20180721203531 76 150 5.0 10.0 0.00 1.81 0.06 72 1012.1
20180721203432 76 125 5.0 11.0 0.00 1.81 0.06 72 1012.0
20180721203332 76 114 6.0 11.0 0.00 1.81 0.06 72 1012.1
20180721203237 76 137 6.0 11.0 0.00 1.81 0.06 72 1012.1
20180721203137 76 120 5.0 11.0 0.00 1.81 0.06 72 1012.1
20180721203037 76 129 4.0 11.0 0.00 1.81 0.06 71 1012.1
20180721202937 76 155 3.0 13.0 0.00 1.81 0.06 72 1012.0
20180721202837 76 118 2.0 13.0 0.00 1.81 0.06 72 1012.0
20180721202738 76 125 4.0 13.0 0.00 1.81 0.06 72 1012.1
20180721202622 76 141 5.0 13.0 0.00 1.81 0.06 71 1012.1
20180721202521 76 118 4.0 13.0 0.00 1.81 0.06 71 1012.1
20180721202421 76 126 4.0 13.0 0.00 1.81 0.06 71 1012.1
20180721202321 76 118 4.0 13.0 0.00 1.81 0.06 71 1012.0
20180721202221 76 124 5.0 13.0 0.00 1.81 0.06 72 1012.2
20180721202121 76 118 6.0 13.0 0.00 1.81 0.06 72 1012.1
20180721202021 76 145 5.0 11.0 0.00 1.81 0.06 71 1012.1
20180721201925 76 151 5.0 11.0 0.00 1.81 0.06 71 1012.0
20180721201825 77 144 4.0 11.0 0.00 1.81 0.06 71 1011.9
20180721201725 77 191 4.0 11.0 0.00 1.81 0.06 71 1012.0
20180721201625 77 116 5.0 11.0 0.00 1.81 0.06 71 1012.0
20180721201525 77 139 5.0 11.0 0.00 1.81 0.06 71 1012.0
20180721201425 77 133 3.0 12.0 0.00 1.81 0.06 71 1011.9
20180721201328 77 120 2.0 12.0 0.00 1.81 0.06 72 1012.0
20180721201227 77 125 3.0 13.0 0.00 1.81 0.06 72 1011.9
20180721201127 77 114 4.0 13.0 0.00 1.81 0.06 71 1012.0
20180721201027 77 130 3.0 13.0 0.00 1.81 0.06 71 1012.0
20180721200927 77 108 4.0 13.0 0.00 1.81 0.06 71 1012.0
20180721200827 77 131 5.0 13.0 0.00 1.81 0.06 71 1012.1
20180721200727 77 139 6.0 13.0 0.00 1.81 0.06 72 1012.0
20180721200631 77 147 7.0 13.0 0.00 1.81 0.06 72 1012.0
20180721200530 77 91 7.0 13.0 0.00 1.81 0.06 71 1012.0
20180721200430 77 106 5.0 13.0 0.00 1.81 0.06 71 1012.0
20180721200330 77 128 5.0 12.0 0.00 1.81 0.06 72 1012.0
20180721200229 77 108 5.0 12.0 0.00 1.81 0.06 71 1011.9
20180721200129 77 110 5.0 11.0 0.00 1.81 0.06 72 1011.9
20180721200033 77 139 5.0 11.0 0.00 1.81 0.06 71 1012.0
20180721195933 77 158 4.0 11.0 0.00 1.81 0.06 71 1011.9
20180721195832 77 124 6.0 11.0 0.00 1.81 0.06 71 1011.9
20180721195733 77 132 5.0 11.0 0.00 1.81 0.06 71 1011.9
20180721195633 77 97 3.0 12.0 0.00 1.81 0.06 72 1011.9
20180721195533 77 87 3.0 10.0 0.00 1.81 0.06 72 1011.9
20180721195433 77 110 4.0 10.0 0.00 1.81 0.06 73 1011.9
20180721195337 77 114 4.0 14.0 0.00 1.81 0.06 73 1011.9
20180721195235 77 132 4.0 14.0 0.00 1.81 0.06 72 1011.9
20180721195135 77 127 2.0 14.0 0.00 1.81 0.06 73 1011.9
20180721195035 77 138 2.0 14.0 0.00 1.81 0.06 75 1011.9
20180721194935 76 139 4.0 14.0 0.00 1.81 0.06 74 1011.9
20180721194834 76 133 5.0 14.0 0.00 1.81 0.06 73 1011.9
20180721194737 76 156 5.0 14.0 0.00 1.81 0.06 73 1011.9
20180721194636 76 124 6.0 14.0 0.00 1.81 0.06 73 1011.8
20180721194536 76 120 5.0 14.0 0.00 1.81 0.06 73 1011.9
20180721194436 76 152 2.0 13.0 0.00 1.81 0.06 74 1011.9
20180721194337 76 130 2.0 13.0 0.00 1.81 0.06 74 1011.9
20180721194237 76 135 4.0 13.0 0.00 1.81 0.06 73 1011.9
20180721194120 76 139 7.0 13.0 0.00 1.81 0.06 73 1011.9
20180721194020 76 143 7.0 13.0 0.00 1.81 0.06 73 1011.9
20180721193920 76 160 6.0 13.0 0.00 1.81 0.06 73 1012.0
20180721193820 76 139 5.0 13.0 0.00 1.81 0.06 73 1011.9
20180721193721 76 113 3.0 11.0 0.00 1.81 0.06 74 1011.9
20180721193621 76 147 4.0 11.0 0.00 1.81 0.06 74 1012.0
20180721193520 76 124 5.0 11.0 0.00 1.81 0.06 73 1012.0
20180721193424 76 141 4.0 11.0 0.00 1.81 0.06 73 1012.0
20180721193324 76 172 3.0 11.0 0.00 1.81 0.06 74 1012.1
20180721193224 76 123 4.0 11.0 0.00 1.81 0.06 74 1012.0
20180721193125 76 103 5.0 11.0 0.00 1.81 0.06 73 1012.1
20180721193025 76 160 6.0 11.0 0.00 1.81 0.06 74 1012.0
20180721192925 76 128 5.0 11.0 0.00 1.81 0.06 74 1012.1
20180721192829 76 116 4.0 11.0 0.00 1.81 0.06 74 1012.1
20180721192729 76 111 4.0 11.0 0.00 1.81 0.06 74 1012.1
20180721192629 76 127 5.0 11.0 0.00 1.81 0.06 73 1012.1
20180721192529 76 144 5.0 11.0 0.00 1.81 0.06 74 1012.1
20180721192429 76 102 4.0 11.0 0.00 1.81 0.06 74 1012.2
20180721192329 75 118 4.0 11.0 0.00 1.81 0.06 74 1012.2
20180721192229 75 142 4.0 10.0 0.00 1.81 0.06 74 1012.3
20180721192133 75 118 4.0 10.0 0.00 1.81 0.06 75 1012.3
20180721192034 75 89 2.0 10.0 0.00 1.81 0.06 75 1012.2
20180721191935 75 157 2.0 10.0 0.00 1.81 0.06 76 1012.2
20180721191835 75 110 4.0 10.0 0.00 1.81 0.06 75 1012.2
20180721191736 75 129 6.0 10.0 0.00 1.81 0.06 74 1012.3
20180721191636 75 166 5.0 10.0 0.00 1.81 0.06 74 1012.2
20180721191540 75 155 4.0 10.0 0.00 1.81 0.06 75 1012.3
20180721191440 75 142 3.0 10.0 0.00 1.81 0.06 75 1012.3
20180721191321 75 129 3.0 10.0 0.00 1.81 0.06 76 1012.4
20180721191221 75 117 3.0 10.0 0.00 1.81 0.06 76 1012.2
20180721191121 74 137 4.0 10.0 0.00 1.81 0.06 76 1012.2
20180721191022 74 163 4.0 10.0 0.00 1.81 0.06 76 1012.2
20180721190926 74 133 4.0 10.0 0.00 1.81 0.06 76 1012.3
20180721190826 74 134 3.0 10.0 0.00 1.81 0.06 75 1012.3
20180721190726 74 140 2.0 7.0 0.00 1.81 0.06 77 1012.3
20180721190627 74 104 3.0 7.0 0.00 1.81 0.06 77 1012.3
20180721190527 74 134 2.0 9.0 0.00 1.81 0.06 77 1012.3
20180721190427 74 155 2.0 9.0 0.00 1.81 0.06 77 1012.3
20180721190327 74 105 3.0 9.0 0.00 1.81 0.06 77 1012.3
20180721190230 74 112 4.0 9.0 0.00 1.81 0.06 77 1012.3
20180721190130 74 108 3.0 9.0 0.00 1.81 0.06 77 1012.3
20180721190032 74 108 2.0 9.0 0.00 1.81 0.06 77 1012.4
20180721185931 74 148 2.0 9.0 0.00 1.81 0.06 77 1012.4
20180721185832 74 143 3.0 9.0 0.00 1.81 0.06 76 1012.4
20180721185732 74 154 3.0 9.0 0.00 1.81 0.06 77 1012.4
20180721185636 74 145 2.0 8.0 0.00 1.81 0.06 77 1012.4
20180721185537 74 109 1.0 8.0 0.00 1.81 0.06 78 1012.4
20180721185437 74 144 0.0 8.0 0.00 1.81 0.06 77 1012.4
20180721185338 73 144 2.0 9.0 0.00 1.81 0.06 77 1012.4
20180721185238 74 144 3.0 9.0 0.00 1.81 0.06 77 1012.4
20180721185138 73 154 3.0 9.0 0.00 1.81 0.06 77 1012.4
20180721185023 73 103 3.0 9.0 0.00 1.81 0.06 76 1012.3
20180721184922 73 43 2.0 9.0 0.00 1.81 0.06 77 1012.4
20180721184822 73 129 2.0 9.0 0.00 1.81 0.06 77 1012.4
20180721184722 73 132 3.0 9.0 0.00 1.81 0.06 77 1012.4
20180721184623 73 144 4.0 9.0 0.00 1.81 0.06 76 1012.5
20180721184523 73 137 4.0 9.0 0.00 1.81 0.06 76 1012.4
20180721184423 73 160 3.0 8.0 0.00 1.81 0.06 77 1012.4
20180721184327 73 127 3.0 8.0 0.00 1.81 0.06 76 1012.4
20180721184227 73 120 4.0 8.0 0.00 1.81 0.06 76 1012.4
20180721184128 73 114 4.0 7.0 0.00 1.81 0.06 76 1012.4
20180721184028 73 150 3.0 7.0 0.00 1.81 0.06 76 1012.3
20180721183928 73 152 4.0 7.0 0.00 1.81 0.06 76 1012.4
20180721183828 73 132 4.0 10.0 0.00 1.81 0.06 76 1012.4
20180721183732 73 164 2.0 10.0 0.00 1.81 0.06 76 1012.3
20180721183632 73 134 2.0 10.0 0.00 1.81 0.06 76 1012.4
20180721183532 73 137 3.0 10.0 0.00 1.81 0.06 75 1012.4
20180721183432 73 120 2.0 12.0 0.00 1.81 0.06 75 1012.4
20180721183332 73 112 2.0 12.0 0.00 1.81 0.06 75 1012.3
20180721183232 73 116 2.0 12.0 0.00 1.81 0.06 75 1012.3
20180721183132 73 125 4.0 12.0 0.00 1.81 0.06 75 1012.3
20180721183036 74 145 4.0 12.0 0.00 1.81 0.06 74 1012.4
20180721182936 74 160 5.0 12.0 0.00 1.81 0.06 74 1012.3
20180721182836 74 120 6.0 12.0 0.00 1.81 0.06 75 1012.4
20180721182736 74 145 5.0 12.0 0.00 1.81 0.06 75 1012.4
20180721182636 74 122 3.0 11.0 0.00 1.81 0.06 75 1012.3
20180721182536 74 189 3.0 9.0 0.00 1.81 0.06 75 1012.3
20180721182440 74 142 4.0 9.0 0.00 1.81 0.06 75 1012.3
20180721182321 74 133 4.0 9.0 0.00 1.81 0.06 75 1012.4
20180721182221 74 108 3.0 9.0 0.00 1.81 0.06 76 1012.4
20180721182121 74 122 3.0 11.0 0.00 1.81 0.06 75 1012.4
20180721182021 74 158 3.0 11.0 0.00 1.81 0.06 75 1012.4
20180721181921 74 145 4.0 11.0 0.00 1.81 0.06 75 1012.3
20180721181825 74 108 3.0 11.0 0.00 1.81 0.06 75 1012.4
20180721181725 74 106 3.0 11.0 0.00 1.81 0.06 74 1012.4
20180721181625 74 145 5.0 11.0 0.00 1.81 0.06 74 1012.4
20180721181525 74 168 5.0 11.0 0.00 1.81 0.06 74 1012.4
20180721181424 74 143 5.0 11.0 0.00 1.81 0.06 74 1012.4
20180721181323 74 147 6.0 12.0 0.00 1.81 0.06 74 1012.3
20180721181224 74 161 6.0 12.0 0.00 1.81 0.06 74 1012.4
20180721181128 74 134 6.0 12.0 0.00 1.81 0.06 74 1012.3
20180721181028 74 141 6.0 12.0 0.00 1.81 0.06 73 1012.4
20180721180928 74 156 5.0 12.0 0.00 1.81 0.06 73 1012.4
20180721180827 74 106 4.0 12.0 0.00 1.81 0.06 74 1012.4
20180721180727 74 139 5.0 12.0 0.00 1.81 0.06 73 1012.4
20180721180628 74 102 4.0 12.0 0.00 1.81 0.06 73 1012.5
20180721180531 75 182 4.0 12.0 0.00 1.81 0.06 74 1012.4
20180721180430 74 111 5.0 10.0 0.00 1.81 0.06 73 1012.5
20180721180329 75 181 5.0 11.0 0.00 1.81 0.06 74 1012.4
20180721180229 75 142 3.0 11.0 0.00 1.81 0.06 75 1012.4
20180721180130 74 145 3.0 11.0 0.00 1.81 0.06 74 1012.4
20180721180029 74 120 3.0 11.0 0.00 1.81 0.06 75 1012.5
20180721175929 74 154 4.0 11.0 0.00 1.81 0.06 74 1012.5
20180721175832 74 152 4.0 11.0 0.00 1.81 0.06 74 1012.5
20180721175733 74 157 4.0 12.0 0.00 1.81 0.06 74 1012.4
20180721175633 74 162 4.0 13.0 0.00 1.81 0.06 74 1012.6
20180721175532 74 119 6.0 15.0 0.00 1.81 0.06 74 1012.5
20180721175431 74 117 6.0 15.0 0.00 1.81 0.06 74 1012.5
20180721175331 74 160 5.0 15.0 0.00 1.81 0.06 74 1012.5
20180721175235 74 157 5.0 15.0 0.00 1.81 0.06 74 1012.4
20180721175135 74 160 5.0 15.0 0.00 1.81 0.06 74 1012.4
20180721175034 74 143 7.0 15.0 0.00 1.81 0.06 73 1012.5
20180721174934 74 119 7.0 15.0 0.00 1.81 0.06 73 1012.5
20180721174833 74 154 8.0 15.0 0.00 1.81 0.06 73 1012.6
20180721174733 74 119 9.0 15.0 0.00 1.81 0.06 73 1012.5
20180721174633 74 134 8.0 15.0 0.00 1.81 0.06 73 1012.6
20180721174537 74 170 8.0 15.0 0.00 1.81 0.06 73 1012.6
20180721174437 74 129 5.0 15.0 0.00 1.81 0.06 74 1012.5
20180721174338 74 181 5.0 15.0 0.00 1.81 0.06 74 1012.6
20180721174238 74 161 8.0 15.0 0.00 1.81 0.06 73 1012.5
20180721174138 74 169 9.0 15.0 0.00 1.81 0.06 73 1012.5
20180721174037 74 175 9.0 15.0 0.00 1.81 0.06 72 1012.5
20180721173921 74 139 9.0 15.0 0.00 1.81 0.06 73 1012.5
20180721173822 74 141 7.0 14.0 0.00 1.81 0.06 73 1012.6
20180721173722 74 158 6.0 14.0 0.00 1.81 0.06 73 1012.6
20180721173621 74 148 5.0 14.0 0.00 1.81 0.06 73 1012.5
20180721173521 74 156 6.0 14.0 0.00 1.81 0.06 73 1012.6
20180721173422 74 139 6.0 14.0 0.00 1.81 0.06 73 1012.5
20180721173326 74 180 6.0 14.0 0.00 1.81 0.06 73 1012.6
20180721173226 74 165 7.0 14.0 0.00 1.81 0.06 73 1012.4
20180721173126 74 134 7.0 12.0 0.00 1.81 0.06 73 1012.6
20180721173026 74 143 6.0 13.0 0.00 1.81 0.06 73 1012.6
20180721172926 74 162 6.0 13.0 0.00 1.81 0.06 73 1012.5
20180721172826 74 145 6.0 13.0 0.00 1.81 0.06 73 1012.5
20180721172726 74 149 6.0 13.0 0.00 1.81 0.06 73 1012.6
20180721172630 74 174 5.0 13.0 0.00 1.81 0.06 73 1012.5
20180721172530 74 185 6.0 15.0 0.00 1.81 0.06 72 1012.5
20180721172431 74 156 7.0 15.0 0.00 1.81 0.06 72 1012.5
20180721172331 74 133 7.0 18.0 0.00 1.81 0.06 72 1012.5
20180721172231 74 137 6.0 18.0 0.00 1.81 0.06 73 1012.5
20180721172131 74 139 6.0 18.0 0.00 1.81 0.06 73 1012.5
20180721172036 74 152 7.0 18.0 0.00 1.81 0.06 73 1012.4
20180721171936 74 155 7.0 18.0 0.00 1.81 0.06 73 1012.5
20180721171836 74 127 8.0 18.0 0.00 1.81 0.06 72 1012.5
20180721171737 74 146 9.0 18.0 0.00 1.81 0.06 72 1012.5
20180721171637 75 144 8.0 18.0 0.00 1.81 0.06 72 1012.5
20180721171537 74 174 6.0 19.0 0.00 1.81 0.06 73 1012.6
20180721171421 74 127 5.0 15.0 0.00 1.81 0.06 73 1012.5
20180721171321 74 124 6.0 15.0 0.00 1.81 0.06 73 1012.6
20180721171221 74 148 7.0 15.0 0.00 1.81 0.06 73 1012.6
20180721171121 74 127 7.0 15.0 0.00 1.81 0.06 73 1012.5
20180721171022 74 149 7.0 15.0 0.00 1.81 0.06 73 1012.5
20180721170922 74 184 7.0 15.0 0.00 1.81 0.06 73 1012.5
20180721170822 74 191 8.0 15.0 0.00 1.81 0.06 73 1012.5
20180721170726 74 161 8.0 15.0 0.00 1.81 0.06 73 1012.5
20180721170626 74 195 9.0 16.0 0.00 1.81 0.06 73 1012.6
20180721170526 74 187 8.0 13.0 0.00 1.81 0.06 72 1012.6
20180721170427 74 161 7.0 13.0 0.00 1.81 0.06 73 1012.5
20180721170327 74 157 7.0 13.0 0.00 1.81 0.06 73 1012.6
20180721170227 74 159 8.0 13.0 0.00 1.81 0.06 72 1012.5
20180721170131 74 172 8.0 13.0 0.00 1.81 0.06 73 1012.5
20180721170031 74 130 8.0 13.0 0.00 1.81 0.06 73 1012.5
20180721165931 74 165 9.0 13.0 0.00 1.81 0.06 72 1012.5
20180721165832 74 163 9.0 13.0 0.00 1.81 0.06 72 1012.5
20180721165732 74 165 7.0 16.0 0.00 1.81 0.06 73 1012.5
20180721165632 74 154 6.0 16.0 0.00 1.81 0.06 73 1012.5
20180721165533 74 185 8.0 16.0 0.00 1.81 0.06 72 1012.5
20180721165437 74 169 7.0 16.0 0.00 1.81 0.06 73 1012.4
20180721165336 74 173 5.0 10.0 0.00 1.81 0.06 73 1012.5
20180721165236 74 152 6.0 9.0 0.00 1.81 0.06 73 1012.5
20180721165136 74 173 5.0 9.0 0.00 1.81 0.06 73 1012.5
20180721165036 74 146 4.0 14.0 0.00 1.81 0.06 73 1012.5
20180721164937 74 143 5.0 14.0 0.00 1.81 0.06 73 1012.5
20180721164821 74 163 6.0 14.0 0.00 1.81 0.06 73 1012.5
20180721164721 74 156 5.0 14.0 0.00 1.81 0.06 73 1012.5
20180721164621 74 129 5.0 14.0 0.00 1.81 0.06 73 1012.5
20180721164521 74 180 4.0 14.0 0.00 1.81 0.06 72 1012.5
20180721164422 74 170 3.0 14.0 0.00 1.81 0.06 73 1012.4
20180721164321 74 145 5.0 14.0 0.00 1.81 0.06 72 1012.6
20180721164226 74 143 5.0 13.0 0.00 1.81 0.06 72 1012.5
20180721164127 75 161 4.0 10.0 0.00 1.81 0.06 72 1012.6
20180721164027 75 154 5.0 10.0 0.00 1.81 0.06 72 1012.5
20180721163927 75 162 5.0 10.0 0.00 1.81 0.06 72 1012.6
20180721163827 75 159 4.0 10.0 0.00 1.81 0.06 73 1012.6
20180721163727 75 160 3.0 10.0 0.00 1.81 0.06 72 1012.5
20180721163627 75 173 4.0 10.0 0.00 1.81 0.06 72 1012.6
20180721163532 75 155 5.0 14.0 0.00 1.81 0.06 73 1012.6
20180721163431 75 103 6.0 14.0 0.00 1.81 0.06 73 1012.6
20180721163332 75 166 6.0 14.0 0.00 1.81 0.06 73 1012.6
20180721163233 75 184 6.0 14.0 0.00 1.81 0.06 72 1012.6
20180721163132 74 160 4.0 14.0 0.00 1.81 0.06 73 1012.6
20180721163034 74 181 3.0 14.0 0.00 1.81 0.06 72 1012.6
20180721162938 74 165 4.0 14.0 0.00 1.81 0.06 72 1012.7
20180721162837 74 187 6.0 14.0 0.00 1.81 0.06 72 1012.7
20180721162737 74 160 7.0 14.0 0.00 1.81 0.06 71 1012.7
20180721162636 74 150 8.0 15.0 0.00 1.81 0.06 71 1012.7
20180721162536 75 152 7.0 15.0 0.00 1.81 0.06 72 1012.7
20180721162436 75 156 7.0 17.0 0.00 1.81 0.06 72 1012.7
20180721162336 75 219 8.0 17.0 0.00 1.81 0.06 72 1012.7
20180721162239 75 172 8.0 17.0 0.00 1.81 0.06 72 1012.7
20180721162139 75 141 6.0 18.0 0.00 1.81 0.06 72 1012.7
20180721162038 75 143 4.0 18.0 0.00 1.81 0.06 73 1012.7
20180721161938 75 166 7.0 18.0 0.00 1.81 0.06 71 1012.7
20180721161838 75 152 10.0 20.0 0.00 1.81 0.06 71 1012.7
20180721161738 75 147 9.0 20.0 0.00 1.81 0.06 72 1012.7
20180721161622 75 160 9.0 20.0 0.00 1.81 0.06 72 1012.7
20180721161522 75 185 10.0 20.0 0.00 1.81 0.06 72 1012.7
20180721161422 74 146 8.0 20.0 0.00 1.81 0.06 72 1012.7
20180721161323 74 137 9.0 20.0 0.00 1.81 0.06 72 1012.8
20180721161223 74 137 11.0 20.0 0.00 1.81 0.06 71 1012.7
20180721161121 75 170 10.0 20.0 0.00 1.81 0.06 71 1012.7
20180721161025 75 148 8.0 15.0 0.00 1.81 0.06 72 1012.6
20180721160924 74 133 7.0 15.0 0.00 1.81 0.06 72 1012.6
20180721160825 74 152 7.0 15.0 0.00 1.81 0.06 72 1012.6
20180721160725 74 190 9.0 15.0 0.00 1.81 0.06 72 1012.6
20180721160626 74 133 8.0 15.0 0.00 1.81 0.06 72 1012.6
20180721160526 74 156 7.0 15.0 0.00 1.81 0.06 72 1012.5
20180721160426 74 191 8.0 15.0 0.00 1.81 0.06 72 1012.4
20180721160342 74 159 9.0 15.0 0.00 1.81 0.06 72 1012.5
20180721160228 74 162 9.0 15.0 0.00 1.81 0.06 72 1012.5
20180721160127 74 124 7.0 17.0 0.00 1.81 0.06 72 1012.6
20180721160028 74 194 8.0 17.0 0.00 1.81 0.06 72 1012.5
20180721155927 74 178 7.0 17.0 0.00 1.81 0.06 72 1012.6
20180721155827 74 149 5.0 11.0 0.00 1.81 0.06 73 1012.5
20180721155731 74 149 5.0 11.0 0.00 1.81 0.06 73 1012.5
20180721155632 74 177 3.0 11.0 0.00 1.81 0.06 73 1012.5
20180721155532 74 148 3.0 11.0 0.00 1.81 0.06 74 1012.6
20180721155432 74 159 3.0 11.0 0.00 1.81 0.06 73 1012.6
20180721155333 74 172 4.0 17.0 0.00 1.81 0.06 73 1012.6
20180721155234 74 174 5.0 17.0 0.00 1.81 0.06 72 1012.5
20180721155133 74 174 6.0 17.0 0.00 1.81 0.06 72 1012.5
20180721155038 74 171 5.0 17.0 0.00 1.81 0.06 71 1012.5
20180721154938 74 120 4.0 17.0 0.00 1.81 0.06 72 1012.6
20180721154838 74 161 5.0 17.0 0.00 1.81 0.06 71 1012.4
20180721154738 74 155 6.0 17.0 0.00 1.81 0.06 71 1012.5
20180721154639 74 193 7.0 17.0 0.00 1.81 0.06 72 1012.6
20180721154539 74 167 7.0 17.0 0.00 1.81 0.06 71 1012.5
20180721154423 74 183 8.0 18.0 0.00 1.81 0.06 71 1012.5
20180721154324 74 207 9.0 19.0 0.00 1.81 0.06 71 1012.5
20180721154224 74 142 9.0 20.0 0.00 1.81 0.06 71 1012.5
20180721154124 74 190 10.0 20.0 0.00 1.81 0.06 71 1012.5
20180721154025 74 120 9.0 20.0 0.00 1.81 0.06 71 1012.6
20180721153925 74 181 6.0 20.0 0.00 1.81 0.06 73 1012.5
20180721153828 74 165 6.0 20.0 0.00 1.81 0.06 72 1012.4
20180721153727 74 170 8.0 20.0 0.00 1.81 0.06 71 1012.4
20180721153627 74 148 8.0 20.0 0.00 1.81 0.06 72 1012.4
20180721153527 74 139 11.0 20.0 0.00 1.81 0.06 72 1012.4
20180721153428 74 145 12.0 22.0 0.00 1.81 0.06 71 1012.4
20180721153327 74 141 9.0 22.0 0.00 1.81 0.06 72 1012.3
20180721153227 74 164 7.0 22.0 0.00 1.81 0.06 73 1012.4
20180721153131 74 167 5.0 22.0 0.00 1.81 0.06 73 1012.4
20180721153031 74 176 6.0 22.0 0.00 1.81 0.06 73 1012.3
20180721152932 74 146 7.0 22.0 0.00 1.81 0.06 73 1012.3
20180721152832 74 166 7.0 22.0 0.00 1.81 0.06 73 1012.3
20180721152733 74 169 9.0 22.0 0.00 1.81 0.06 72 1012.4
20180721152633 74 168 8.0 22.0 0.00 1.81 0.06 72 1012.4
20180721152537 74 191 5.0 19.0 0.00 1.81 0.06 73 1012.4
20180721152437 74 154 6.0 14.0 0.00 1.81 0.06 74 1012.4
20180721152337 74 166 6.0 17.0 0.00 1.81 0.06 73 1012.4
20180721152236 74 177 7.0 17.0 0.00 1.81 0.06 74 1012.4
20180721152135 74 143 8.0 17.0 0.00 1.81 0.06 74 1012.3
20180721152036 74 129 7.0 17.0 0.00 1.81 0.06 74 1012.4
20180721151921 74 146 6.0 17.0 0.00 1.81 0.06 74 1012.4
20180721151822 74 165 7.0 17.0 0.00 1.81 0.06 74 1012.4
20180721151721 74 195 9.0 17.0 0.00 1.81 0.06 73 1012.4
20180721151620 74 172 11.0 17.0 0.00 1.81 0.06 72 1012.4
20180721151520 74 148 8.0 17.0 0.00 1.81 0.06 73 1012.4
20180721151420 74 189 6.0 15.0 0.00 1.81 0.06 73 1012.4
20180721151322 74 154 5.0 15.0 0.04 1.81 0.06 74 1012.4
20180721151225 74 141 6.0 15.0 0.04 1.81 0.06 73 1012.4
20180721151125 74 161 6.0 15.0 0.04 1.81 0.06 73 1012.4
20180721151026 74 164 7.0 15.0 0.04 1.81 0.06 73 1012.4
20180721150925 75 169 8.0 15.0 0.04 1.81 0.06 72 1012.3
20180721150826 75 142 9.0 15.0 0.04 1.81 0.06 73 1012.4
20180721150727 75 198 9.0 15.0 0.04 1.81 0.06 73 1012.4
20180721150632 75 167 6.0 14.0 0.04 1.81 0.06 73 1012.3
20180721150533 75 180 5.0 14.0 0.04 1.81 0.06 74 1012.3
20180721150431 75 118 6.0 14.0 0.04 1.81 0.06 73 1012.2
20180721150331 75 135 7.0 14.0 0.04 1.81 0.06 72 1012.3
20180721150232 75 154 9.0 14.0 0.04 1.81 0.06 72 1012.3
20180721150134 75 97 9.0 14.0 0.04 1.81 0.06 71 1012.2
20180721150032 75 162 9.0 15.0 0.04 1.81 0.06 73 1012.2
20180721145937 75 150 7.0 14.0 0.04 1.81 0.06 73 1012.2
20180721145838 75 133 7.0 12.0 0.04 1.81 0.06 74 1012.2
20180721145737 75 125 7.0 12.0 0.04 1.81 0.06 72 1012.2
20180721145637 75 147 7.0 12.0 0.04 1.81 0.06 73 1012.2
20180721145538 75 185 5.0 12.0 0.04 1.81 0.06 75 1012.2
20180721145438 75 174 3.0 12.0 0.04 1.81 0.06 75 1012.2
20180721145323 74 172 5.0 12.0 0.04 1.81 0.06 74 1012.2
20180721145224 74 147 6.0 12.0 0.04 1.81 0.06 75 1012.3
20180721145124 74 168 5.0 12.0 0.04 1.81 0.06 75 1012.2
20180721145024 74 161 5.0 12.0 0.04 1.81 0.06 74 1012.2
20180721144925 74 154 6.0 12.0 0.04 1.81 0.06 74 1012.2
20180721144826 74 165 7.0 12.0 0.04 1.81 0.06 73 1012.3
20180721144731 74 156 7.0 12.0 0.04 1.81 0.06 74 1012.2
20180721144631 74 191 7.0 12.0 0.04 1.81 0.06 74 1012.3
20180721144532 74 154 7.0 14.0 0.04 1.81 0.06 73 1012.3
20180721144432 74 168 7.0 14.0 0.04 1.81 0.06 74 1012.2
20180721144332 74 139 7.0 14.0 0.04 1.81 0.06 75 1012.2
20180721144233 74 149 7.0 14.0 0.04 1.81 0.06 75 1012.2
20180721144133 74 139 5.0 14.0 0.04 1.81 0.06 74 1012.2
20180721144036 74 149 4.0 14.0 0.04 1.81 0.06 75 1012.2
20180721143936 74 141 6.0 14.0 0.04 1.81 0.06 74 1012.1
20180721143836 74 149 8.0 14.0 0.04 1.81 0.06 75 1012.2
20180721143736 74 148 8.0 14.0 0.04 1.81 0.06 74 1012.3
20180721143635 74 172 9.0 14.0 0.04 1.81 0.06 74 1012.2
20180721143534 74 154 8.0 14.0 0.04 1.81 0.06 75 1012.1
20180721143437 74 138 7.0 14.0 0.04 1.81 0.06 76 1012.1
20180721143336 74 144 6.0 14.0 0.04 1.81 0.06 77 1012.2
20180721143235 74 154 6.0 16.0 0.04 1.81 0.06 77 1012.2
20180721143134 74 144 7.0 16.0 0.04 1.81 0.06 76 1012.2
20180721143033 73 113 7.0 16.0 0.04 1.81 0.06 76 1012.2
20180721142932 73 147 7.0 16.0 0.04 1.81 0.06 76 1012.1
20180721142832 73 170 8.0 16.0 0.04 1.81 0.06 76 1012.2
20180721142735 73 133 8.0 16.0 0.04 1.81 0.06 76 1012.1
20180721142634 73 174 8.0 16.0 0.04 1.81 0.06 76 1012.2
20180721142533 73 161 9.0 16.0 0.04 1.81 0.06 76 1012.2
20180721142433 73 124 9.0 16.0 0.04 1.81 0.06 77 1012.2
20180721142332 73 154 8.0 13.0 0.04 1.81 0.06 77 1012.2
20180721142231 73 157 7.0 13.0 0.04 1.81 0.06 77 1012.2
20180721142134 73 125 5.0 13.0 0.04 1.81 0.06 77 1012.2
20180721142034 73 153 6.0 13.0 0.04 1.81 0.06 77 1012.1
20180721141933 73 184 8.0 13.0 0.04 1.81 0.06 77 1012.2
20180721141833 73 167 7.0 13.0 0.04 1.81 0.06 77 1012.2
20180721141732 73 193 7.0 13.0 0.04 1.81 0.06 78 1012.2
20180721141631 73 174 6.0 13.0 0.04 1.81 0.06 78 1012.2
20180721141531 72 159 6.0 13.0 0.04 1.81 0.06 78 1012.2
20180721141435 72 160 7.0 13.0 0.04 1.81 0.06 77 1012.2
20180721141334 72 171 7.0 13.0 0.00 1.77 0.05 78 1012.3
20180721141233 72 162 5.0 13.0 0.00 1.77 0.05 78 1012.2
20180721141132 72 142 7.0 13.0 0.00 1.77 0.05 78 1012.2
20180721141032 72 161 7.0 14.0 0.00 1.77 0.05 78 1012.2
20180721140932 72 154 7.0 14.0 0.00 1.77 0.05 78 1012.3
20180721140836 72 142 8.0 14.0 0.00 1.77 0.05 77 1012.2
20180721140735 72 175 7.0 12.0 0.00 1.77 0.05 78 1012.3
20180721140634 72 122 6.0 12.0 0.00 1.77 0.05 78 1012.3
20180721140535 72 163 6.0 12.0 0.00 1.77 0.05 78 1012.3
20180721140435 72 152 6.0 12.0 0.00 1.77 0.05 78 1012.3
20180721140335 72 180 8.0 12.0 0.00 1.77 0.05 77 1012.4
20180721140235 72 142 7.0 13.0 0.00 1.77 0.05 77 1012.4
20180721140119 72 139 5.0 12.0 0.00 1.77 0.05 78 1012.4
20180721140020 72 153 7.0 12.0 0.00 1.77 0.05 77 1012.3
20180721135919 72 144 8.0 14.0 0.00 1.77 0.05 77 1012.3
20180721135820 72 168 7.0 14.0 0.00 1.77 0.05 78 1012.3
20180721135719 72 143 7.0 14.0 0.00 1.77 0.05 78 1012.3
20180721135620 72 149 7.0 14.0 0.00 1.77 0.05 77 1012.4
20180721135525 72 153 7.0 14.0 0.00 1.77 0.05 77 1012.3
20180721135425 72 135 7.0 14.0 0.00 1.77 0.05 78 1012.2
20180721135324 72 159 5.0 14.0 0.00 1.77 0.05 79 1012.3
20180721135223 72 172 5.0 14.0 0.00 1.77 0.05 78 1012.3
20180721135124 72 149 6.0 14.0 0.00 1.77 0.05 78 1012.2
20180721135024 72 147 5.0 14.0 0.00 1.77 0.05 78 1012.2
20180721134928 72 166 7.0 14.0 0.00 1.77 0.05 78 1012.2
20180721134829 72 122 8.0 14.0 0.00 1.77 0.05 78 1012.3
20180721134729 72 172 7.0 14.0 0.00 1.77 0.05 78 1012.2
20180721134630 72 171 6.0 14.0 0.00 1.77 0.05 79 1012.2
20180721134531 72 158 7.0 14.0 0.00 1.77 0.05 78 1012.3
20180721134430 72 164 8.0 14.0 0.00 1.77 0.05 78 1012.3
20180721134329 72 130 7.0 14.0 0.00 1.77 0.05 79 1012.2
20180721134233 72 125 6.0 15.0 0.00 1.77 0.05 79 1012.2
20180721134133 72 168 5.0 15.0 0.00 1.77 0.05 79 1012.2
20180721134034 72 165 6.0 15.0 0.00 1.77 0.05 79 1012.3
20180721133934 72 188 6.0 15.0 0.00 1.77 0.05 79 1012.2
20180721133834 72 152 8.0 15.0 0.00 1.77 0.05 79 1012.3
20180721133734 72 160 7.0 15.0 0.00 1.77 0.05 79 1012.2
20180721133639 72 151 7.0 15.0 0.00 1.77 0.05 79 1012.3
20180721133539 72 152 8.0 15.0 0.00 1.77 0.05 79 1012.3
20180721133439 72 148 10.0 15.0 0.00 1.77 0.05 79 1012.3
20180721133320 72 139 10.0 15.0 0.00 1.77 0.05 79 1012.4
20180721133220 72 146 9.0 15.0 0.00 1.77 0.05 79 1012.3
20180721133121 72 143 8.0 15.0 0.00 1.77 0.05 79 1012.4
20180721133026 72 154 8.0 15.0 0.00 1.77 0.05 80 1012.1
20180721132925 72 145 6.0 15.0 0.00 1.77 0.05 80 1012.2
20180721132826 72 151 7.0 15.0 0.00 1.77 0.05 80 1012.1
20180721132726 72 145 8.0 15.0 0.00 1.77 0.05 79 1012.2
20180721132626 72 131 8.0 13.0 0.00 1.77 0.05 80 1012.2
20180721132527 72 167 8.0 15.0 0.00 1.77 0.05 80 1012.2
20180721132428 72 165 7.0 15.0 0.00 1.77 0.05 80 1012.2
20180721132332 72 137 8.0 15.0 0.00 1.77 0.05 80 1012.2
20180721132233 72 161 9.0 15.0 0.00 1.77 0.05 80 1012.3
20180721132133 72 166 9.0 15.0 0.00 1.77 0.05 81 1012.3
20180721132033 72 155 7.0 15.0 0.00 1.77 0.05 80 1012.2
20180721131934 72 166 8.0 15.0 0.00 1.77 0.05 81 1012.2
20180721131834 72 160 9.0 15.0 0.00 1.77 0.05 81 1012.2
20180721131738 71 145 10.0 15.0 0.00 1.77 0.05 81 1012.2
20180721131637 72 149 7.0 16.0 0.00 1.77 0.05 81 1012.2
20180721131538 71 172 5.0 12.0 0.00 1.77 0.05 82 1012.2
20180721131439 71 144 5.0 8.0 0.00 1.77 0.05 82 1012.2
20180721131320 71 154 4.0 12.0 0.00 1.77 0.05 82 1012.2
20180721131220 71 158 5.0 12.0 0.00 1.77 0.05 82 1012.0
20180721131124 71 163 5.0 12.0 0.00 1.77 0.05 83 1012.0
20180721131025 71 176 5.0 12.0 0.00 1.77 0.05 82 1012.1
20180721130925 71 160 5.0 12.0 0.00 1.77 0.05 83 1012.0
20180721130825 71 140 6.0 12.0 0.00 1.77 0.05 83 1012.0
20180721130725 71 160 5.0 12.0 0.00 1.77 0.05 83 1012.0
20180721130626 71 172 6.0 12.0 0.00 1.77 0.05 83 1012.0
20180721130526 71 151 6.0 14.0 0.00 1.77 0.05 83 1012.1
20180721130431 71 167 4.0 14.0 0.00 1.77 0.05 82 1011.9
20180721130331 71 151 5.0 14.0 0.00 1.77 0.05 82 1012.0
20180721130231 71 150 6.0 14.0 0.00 1.77 0.05 82 1011.9
20180721130131 71 169 8.0 14.0 0.00 1.77 0.05 82 1011.8
20180721130031 71 145 8.0 14.0 0.00 1.77 0.05 82 1011.9
20180721125931 71 145 8.0 14.0 0.00 1.77 0.05 82 1011.9
20180721125835 71 144 10.0 14.0 0.00 1.77 0.05 82 1011.9
20180721125735 71 159 9.0 14.0 0.00 1.77 0.05 82 1011.9
20180721125635 71 152 9.0 14.0 0.00 1.77 0.05 82 1011.8
20180721125535 71 145 8.0 14.0 0.00 1.77 0.05 82 1011.8
20180721125435 71 149 7.0 12.0 0.00 1.77 0.05 83 1011.9
20180721125334 71 109 7.0 12.0 0.00 1.77 0.05 83 1011.9
20180721125234 71 218 5.0 12.0 0.00 1.77 0.05 83 1011.8
20180721125138 71 177 5.0 12.0 0.00 1.77 0.05 83 1011.9
20180721125037 71 147 7.0 12.0 0.00 1.77 0.05 83 1011.8
20180721124937 71 162 7.0 13.0 0.00 1.77 0.05 83 1011.8
20180721124837 71 153 7.0 11.0 0.00 1.77 0.05 83 1011.8
20180721124737 71 150 6.0 11.0 0.00 1.77 0.05 83 1011.9
20180721124637 71 153 5.0 11.0 0.00 1.77 0.05 83 1011.9
20180721124521 71 114 6.0 11.0 0.00 1.77 0.05 83 1011.9
20180721124421 71 142 5.0 11.0 0.00 1.77 0.05 83 1011.9
20180721124322 71 120 6.0 11.0 0.00 1.77 0.05 83 1011.9
20180721124222 71 163 6.0 11.0 0.00 1.77 0.05 83 1011.8
20180721124122 71 141 4.0 11.0 0.00 1.77 0.05 84 1011.9
20180721124021 71 131 5.0 11.0 0.00 1.77 0.05 84 1011.9
20180721123925 71 148 7.0 12.0 0.00 1.77 0.05 83 1011.9
20180721123826 71 151 6.0 12.0 0.00 1.77 0.05 84 1011.9
20180721123725 71 154 5.0 12.0 0.00 1.77 0.05 84 1011.9
20180721123624 71 174 5.0 12.0 0.00 1.77 0.05 84 1011.9
20180721123524 71 135 5.0 12.0 0.00 1.77 0.05 84 1011.9
20180721123424 71 147 4.0 12.0 0.00 1.77 0.05 85 1011.9
20180721123324 71 133 4.0 12.0 0.00 1.77 0.05 84 1011.9
20180721123228 71 157 6.0 12.0 0.00 1.77 0.05 84 1012.0
20180721123128 71 153 5.0 12.0 0.00 1.77 0.05 85 1011.9
20180721123028 71 118 4.0 9.0 0.00 1.77 0.05 85 1011.9
20180721122928 71 122 5.0 9.0 0.00 1.77 0.05 85 1012.0
20180721122829 71 162 6.0 9.0 0.00 1.77 0.05 84 1011.9
20180721122729 71 131 6.0 9.0 0.00 1.77 0.05 84 1011.9
20180721122633 71 155 6.0 9.0 0.00 1.77 0.05 84 1011.8
20180721122533 71 147 5.0 9.0 0.00 1.77 0.05 84 1011.8
20180721122433 71 110 5.0 9.0 0.00 1.77 0.05 85 1011.9
20180721122333 71 153 4.0 9.0 0.00 1.77 0.05 85 1011.8